Time,TemperatureF,DewpointF,PressureIn,WindDirection,WindDirectionDegrees,WindSpeedMPH,WindSpeedGustMPH,Humidity,HourlyPrecipIn,Conditions,Clouds,dailyrainin,SoftwareType,DateUTC
2013-02-20 00:00:00,39.4,31.8,28.56,SW,232,0.0,0.0,74,0.00,,,0.08,VWS V14.00,2013-02-20 05:00:00,
2013-02-20 00:01:00,39.2,31.6,28.56,SW,232,0.0,0.0,74,0.00,,,0.00,VWS V14.00,2013-02-20 05:01:00,
2013-02-20 00:02:00,39.2,31.6,28.56,SW,232,0.0,0.0,74,0.00,,,0.00,VWS V14.00,2013-02-20 05:02:00,
2013-02-20 00:03:00,39.2,31.6,28.56,SW,232,0.0,0.0,74,0.00,,,0.00,VWS V14.00,2013-02-20 05:03:00,
2013-02-20 00:04:00,39.2,31.6,28.56,SW,222,0.0,0.0,74,0.00,,,0.00,VWS V14.00,2013-02-20 05:04:00,
2013-02-20 00:05:00,39.0,31.8,28.56,SW,223,0.0,0.0,75,0.00,,,0.00,VWS V14.00,2013-02-20 05:05:00,
2013-02-20 00:06:00,39.0,31.8,28.56,SW,226,0.0,0.0,75,0.00,,,0.00,VWS V14.00,2013-02-20 05:06:00,
2013-02-20 00:07:00,38.8,31.3,28.56,SW,226,0.0,0.0,74,0.00,,,0.00,VWS V14.00,2013-02-20 05:07:00,
2013-02-20 00:08:00,38.8,31.3,28.56,WSW,257,0.0,0.0,74,0.00,,,0.00,VWS V14.00,2013-02-20 05:08:00,
2013-02-20 00:09:00,38.8,31.3,28.56,WSW,245,0.0,0.0,74,0.00,,,0.00,VWS V14.00,2013-02-20 05:09:00,
2013-02-20 00:10:00,38.7,31.1,28.56,WSW,245,0.0,0.0,74,0.00,,,0.00,VWS V14.00,2013-02-20 05:10:00,
2013-02-20 00:11:00,38.7,31.1,28.56,WSW,245,0.0,0.0,74,0.00,,,0.00,VWS V14.00,2013-02-20 05:11:00,
2013-02-20 00:12:00,38.7,31.1,28.56,SW,226,0.0,0.0,74,0.00,,,0.00,VWS V14.00,2013-02-20 05:12:00,
2013-02-20 00:13:00,38.7,31.1,28.56,SW,226,0.0,0.0,74,0.00,,,0.00,VWS V14.00,2013-02-20 05:13:00,
2013-02-20 00:14:00,38.5,30.9,28.56,SW,226,0.0,0.0,74,0.00,,,0.00,VWS V14.00,2013-02-20 05:14:00,
2013-02-20 00:15:00,38.5,30.9,28.56,SW,226,0.0,0.0,74,0.00,,,0.00,VWS V14.00,2013-02-20 05:15:00,
2013-02-20 00:16:00,38.5,30.9,28.56,SW,226,0.0,0.0,74,0.00,,,0.00,VWS V14.00,2013-02-20 05:16:00,
2013-02-20 00:17:00,38.5,31.3,28.56,SW,226,0.0,0.0,75,0.00,,,0.00,VWS V14.00,2013-02-20 05:17:00,
2013-02-20 00:18:00,38.3,31.1,28.56,SW,226,0.0,0.0,75,0.00,,,0.00,VWS V14.00,2013-02-20 05:18:00,
2013-02-20 00:19:00,38.3,31.1,28.56,SW,226,0.0,0.0,75,0.00,,,0.00,VWS V14.00,2013-02-20 05:19:00,
2013-02-20 00:20:00,38.3,31.1,28.56,SW,229,0.0,0.0,75,0.00,,,0.00,VWS V14.00,2013-02-20 05:20:00,
2013-02-20 00:21:00,38.3,31.1,28.56,WNW,299,0.0,0.0,75,0.00,,,0.00,VWS V14.00,2013-02-20 05:21:00,
2013-02-20 00:22:00,38.1,30.9,28.56,WNW,299,0.0,0.0,75,0.00,,,0.00,VWS V14.00,2013-02-20 05:22:00,
2013-02-20 00:23:00,38.1,30.9,28.56,WNW,299,0.0,0.0,75,0.00,,,0.00,VWS V14.00,2013-02-20 05:23:00,
2013-02-20 00:24:00,38.1,30.9,28.56,SW,223,0.0,0.0,75,0.00,,,0.00,VWS V14.00,2013-02-20 05:24:00,
2013-02-20 00:25:00,37.9,30.7,28.56,SW,223,0.0,0.0,75,0.00,,,0.00,VWS V14.00,2013-02-20 05:25:00,
2013-02-20 00:26:00,37.9,30.7,28.56,SW,217,0.0,0.0,75,0.00,,,0.00,VWS V14.00,2013-02-20 05:26:00,
2013-02-20 00:27:00,37.9,30.7,28.56,SSW,209,0.0,0.0,75,0.00,,,0.00,VWS V14.00,2013-02-20 05:27:00,
2013-02-20 00:28:00,37.9,30.7,28.56,SW,218,0.0,0.0,75,0.00,,,0.00,VWS V14.00,2013-02-20 05:28:00,
2013-02-20 00:29:00,37.9,30.7,28.56,SW,218,0.0,0.0,75,0.00,,,0.00,VWS V14.00,2013-02-20 05:29:00,
2013-02-20 00:30:00,37.9,30.7,28.56,SW,222,0.0,0.0,75,0.00,,,0.00,VWS V14.00,2013-02-20 05:30:00,
2013-02-20 00:31:00,37.8,30.9,28.56,SW,222,0.0,0.0,76,0.00,,,0.00,VWS V14.00,2013-02-20 05:31:00,
2013-02-20 00:32:00,37.8,30.9,28.56,SW,228,0.0,0.0,76,0.00,,,0.00,VWS V14.00,2013-02-20 05:32:00,
2013-02-20 00:33:00,37.8,30.9,28.56,SW,228,0.0,0.0,76,0.00,,,0.00,VWS V14.00,2013-02-20 05:33:00,
2013-02-20 00:34:00,37.8,30.9,28.56,SW,228,0.0,0.0,76,0.00,,,0.00,VWS V14.00,2013-02-20 05:34:00,
2013-02-20 00:35:00,37.8,30.9,28.56,SW,228,0.0,0.0,76,0.00,,,0.00,VWS V14.00,2013-02-20 05:35:00,
2013-02-20 00:36:00,37.8,30.9,28.56,SW,228,0.0,0.0,76,0.00,,,0.00,VWS V14.00,2013-02-20 05:36:00,
2013-02-20 00:37:00,37.8,30.9,28.56,SW,226,0.0,0.0,76,0.00,,,0.00,VWS V14.00,2013-02-20 05:37:00,
2013-02-20 00:38:00,37.8,30.9,28.56,WSW,238,0.0,0.0,76,0.00,,,0.00,VWS V14.00,2013-02-20 05:38:00,
2013-02-20 00:39:00,37.8,30.9,28.56,SW,234,0.0,0.0,76,0.00,,,0.00,VWS V14.00,2013-02-20 05:39:00,
2013-02-20 00:40:00,37.6,30.7,28.56,SW,234,0.0,0.0,76,0.00,,,0.00,VWS V14.00,2013-02-20 05:40:00,
2013-02-20 00:41:00,37.6,30.7,28.56,SW,234,0.0,0.0,76,0.00,,,0.00,VWS V14.00,2013-02-20 05:41:00,
2013-02-20 00:42:00,37.6,30.7,28.56,SSW,213,0.0,0.0,76,0.00,,,0.00,VWS V14.00,2013-02-20 05:42:00,
2013-02-20 00:43:00,37.6,30.7,28.56,SSW,212,0.0,0.0,76,0.00,,,0.00,VWS V14.00,2013-02-20 05:43:00,
2013-02-20 00:44:00,37.6,30.7,28.56,SSW,206,3.1,3.1,76,0.00,,,0.00,VWS V14.00,2013-02-20 05:44:00,
2013-02-20 00:45:00,37.6,30.7,28.56,SW,218,0.0,0.0,76,0.00,,,0.00,VWS V14.00,2013-02-20 05:45:00,
2013-02-20 00:46:00,37.6,30.7,28.56,SW,218,0.0,0.0,76,0.00,,,0.00,VWS V14.00,2013-02-20 05:46:00,
2013-02-20 00:47:00,37.4,30.5,28.56,WSW,255,0.0,0.0,76,0.00,,,0.00,VWS V14.00,2013-02-20 05:47:00,
2013-02-20 00:48:00,37.4,30.5,28.56,West,271,0.0,0.0,76,0.00,,,0.00,VWS V14.00,2013-02-20 05:48:00,
2013-02-20 00:50:00,37.4,30.5,28.56,NW,319,0.0,0.0,76,0.00,,,0.00,VWS V14.00,2013-02-20 05:50:00,
2013-02-20 00:51:00,37.2,30.4,28.56,WNW,285,0.0,0.0,76,0.00,,,0.00,VWS V14.00,2013-02-20 05:51:00,
2013-02-20 00:52:00,37.0,30.2,28.56,WNW,285,0.0,0.0,76,0.00,,,0.00,VWS V14.00,2013-02-20 05:52:00,
2013-02-20 00:53:00,37.0,30.2,28.56,WSW,239,0.0,0.0,76,0.00,,,0.00,VWS V14.00,2013-02-20 05:53:00,
2013-02-20 00:54:00,37.0,30.2,28.56,WSW,239,0.0,0.0,76,0.00,,,0.00,VWS V14.00,2013-02-20 05:54:00,
2013-02-20 00:55:00,36.9,30.0,28.56,WSW,240,0.0,0.0,76,0.00,,,0.00,VWS V14.00,2013-02-20 05:55:00,
2013-02-20 00:56:00,36.9,30.0,28.56,WSW,240,0.0,0.0,76,0.00,,,0.00,VWS V14.00,2013-02-20 05:56:00,
2013-02-20 00:57:00,36.9,30.0,28.56,WSW,240,0.0,0.0,76,0.00,,,0.00,VWS V14.00,2013-02-20 05:57:00,
2013-02-20 00:58:00,36.7,29.8,28.56,WSW,240,0.0,0.0,76,0.00,,,0.00,VWS V14.00,2013-02-20 05:58:00,
2013-02-20 00:59:00,36.7,29.8,28.56,WSW,240,0.0,0.0,76,0.00,,,0.00,VWS V14.00,2013-02-20 05:59:00,
2013-02-20 01:00:00,36.7,29.8,28.56,West,264,3.1,3.1,76,0.00,,,0.00,VWS V14.00,2013-02-20 06:00:00,
2013-02-20 01:01:00,36.5,29.7,28.56,West,264,0.0,3.1,76,0.00,,,0.00,VWS V14.00,2013-02-20 06:01:00,
2013-02-20 01:02:00,36.5,29.7,28.56,WSW,248,0.0,0.0,76,0.00,,,0.00,VWS V14.00,2013-02-20 06:02:00,
2013-02-20 01:03:00,36.5,29.7,28.56,WSW,248,0.0,0.0,76,0.00,,,0.00,VWS V14.00,2013-02-20 06:03:00,
2013-02-20 01:04:00,36.5,29.7,28.56,WSW,248,0.0,0.0,76,0.00,,,0.00,VWS V14.00,2013-02-20 06:04:00,
2013-02-20 01:05:00,36.5,29.7,28.56,WSW,248,0.0,0.0,76,0.00,,,0.00,VWS V14.00,2013-02-20 06:05:00,
2013-02-20 01:06:00,36.5,29.3,28.56,WSW,248,0.0,0.0,75,0.00,,,0.00,VWS V14.00,2013-02-20 06:06:00,
2013-02-20 01:07:00,36.5,29.3,28.56,WSW,248,0.0,0.0,75,0.00,,,0.00,VWS V14.00,2013-02-20 06:07:00,
2013-02-20 01:08:00,36.5,29.3,28.56,NNW,328,0.0,0.0,75,0.00,,,0.00,VWS V14.00,2013-02-20 06:08:00,
2013-02-20 01:09:00,36.5,29.3,28.56,West,265,0.0,0.0,75,0.00,,,0.00,VWS V14.00,2013-02-20 06:09:00,
2013-02-20 01:10:00,36.3,29.2,28.56,NW,310,0.0,0.0,75,0.00,,,0.00,VWS V14.00,2013-02-20 06:10:00,
2013-02-20 01:11:00,36.3,29.2,28.56,NW,310,0.0,0.0,75,0.00,,,0.00,VWS V14.00,2013-02-20 06:11:00,
2013-02-20 01:12:00,36.3,29.2,28.56,NW,310,0.0,0.0,75,0.00,,,0.00,VWS V14.00,2013-02-20 06:12:00,
2013-02-20 01:13:00,36.3,29.2,28.56,NW,310,0.0,0.0,75,0.00,,,0.00,VWS V14.00,2013-02-20 06:13:00,
2013-02-20 01:14:00,36.3,28.5,28.56,NW,316,0.0,0.0,73,0.00,,,0.00,VWS V14.00,2013-02-20 06:14:00,
2013-02-20 01:15:00,36.3,28.2,28.56,NW,316,0.0,0.0,72,0.00,,,0.00,VWS V14.00,2013-02-20 06:15:00,
2013-02-20 01:16:00,36.3,28.2,28.56,NW,316,0.0,0.0,72,0.00,,,0.00,VWS V14.00,2013-02-20 06:16:00,
2013-02-20 01:17:00,36.3,28.2,28.56,NW,316,0.0,0.0,72,0.00,,,0.00,VWS V14.00,2013-02-20 06:17:00,
2013-02-20 01:18:00,36.3,28.2,28.56,NW,316,0.0,0.0,72,0.00,,,0.00,VWS V14.00,2013-02-20 06:18:00,
2013-02-20 01:19:00,36.3,28.2,28.56,NW,316,0.0,0.0,72,0.00,,,0.00,VWS V14.00,2013-02-20 06:19:00,
2013-02-20 01:20:00,36.3,27.8,28.56,NW,316,0.0,0.0,71,0.00,,,0.00,VWS V14.00,2013-02-20 06:20:00,
2013-02-20 01:21:00,36.3,27.8,28.56,NW,316,0.0,0.0,71,0.00,,,0.00,VWS V14.00,2013-02-20 06:21:00,
2013-02-20 01:22:00,36.3,27.8,28.58,WSW,251,0.0,0.0,71,0.00,,,0.00,VWS V14.00,2013-02-20 06:22:00,
2013-02-20 01:23:00,36.3,27.1,28.58,SW,236,4.0,4.0,69,0.00,,,0.00,VWS V14.00,2013-02-20 06:23:00,
2013-02-20 01:24:00,36.3,27.1,28.58,SW,232,0.0,4.0,69,0.00,,,0.00,VWS V14.00,2013-02-20 06:24:00,
2013-02-20 01:25:00,36.3,25.3,28.59,WSW,237,0.0,0.0,64,0.00,,,0.00,VWS V14.00,2013-02-20 06:25:00,
2013-02-20 01:26:00,36.5,25.1,28.58,SW,227,0.0,0.0,63,0.00,,,0.00,VWS V14.00,2013-02-20 06:26:00,
2013-02-20 01:27:00,36.5,24.7,28.58,WSW,237,0.0,0.0,62,0.00,,,0.00,VWS V14.00,2013-02-20 06:27:00,
2013-02-20 01:28:00,36.5,24.7,28.58,WSW,243,0.0,0.0,62,0.00,,,0.00,VWS V14.00,2013-02-20 06:28:00,
2013-02-20 01:29:00,36.7,24.5,28.58,WSW,247,0.0,0.0,61,0.00,,,0.00,VWS V14.00,2013-02-20 06:29:00,
2013-02-20 01:30:00,36.7,23.7,28.59,WSW,247,0.0,0.0,59,0.00,,,0.00,VWS V14.00,2013-02-20 06:30:00,
2013-02-20 01:31:00,36.9,23.9,28.58,WSW,247,0.0,0.0,59,0.00,,,0.00,VWS V14.00,2013-02-20 06:31:00,
2013-02-20 01:32:00,36.9,23.9,28.58,WSW,248,0.0,0.0,59,0.00,,,0.00,VWS V14.00,2013-02-20 06:32:00,
2013-02-20 01:33:00,36.9,23.9,28.58,WSW,248,0.0,0.0,59,0.00,,,0.00,VWS V14.00,2013-02-20 06:33:00,
2013-02-20 01:34:00,36.9,23.9,28.58,West,269,0.0,0.0,59,0.00,,,0.00,VWS V14.00,2013-02-20 06:34:00,
2013-02-20 01:35:00,36.7,22.9,28.59,West,269,0.0,0.0,57,0.00,,,0.00,VWS V14.00,2013-02-20 06:35:00,
2013-02-20 01:36:00,36.9,23.1,28.58,WSW,252,0.0,0.0,57,0.00,,,0.00,VWS V14.00,2013-02-20 06:36:00,
2013-02-20 01:37:00,36.9,23.1,28.58,WSW,238,2.2,2.2,57,0.00,,,0.00,VWS V14.00,2013-02-20 06:37:00,
2013-02-20 01:38:00,36.9,23.1,28.58,North,353,2.2,2.2,57,0.00,,,0.00,VWS V14.00,2013-02-20 06:38:00,
2013-02-20 01:39:00,36.7,22.9,28.58,West,276,0.0,2.2,57,0.00,,,0.00,VWS V14.00,2013-02-20 06:39:00,
2013-02-20 01:40:00,36.7,22.5,28.59,West,276,0.0,0.0,56,0.00,,,0.00,VWS V14.00,2013-02-20 06:40:00,
2013-02-20 01:41:00,36.7,22.5,28.58,WSW,249,2.2,2.2,56,0.00,,,0.00,VWS V14.00,2013-02-20 06:41:00,
2013-02-20 01:42:00,36.7,22.5,28.58,West,261,0.0,2.2,56,0.00,,,0.00,VWS V14.00,2013-02-20 06:42:00,
2013-02-20 01:43:00,36.7,22.5,28.58,West,261,0.0,0.0,56,0.00,,,0.00,VWS V14.00,2013-02-20 06:43:00,
2013-02-20 01:44:00,36.7,22.0,28.58,West,259,0.0,0.0,55,0.00,,,0.00,VWS V14.00,2013-02-20 06:44:00,
2013-02-20 01:45:00,36.5,21.9,28.59,West,260,0.0,0.0,55,0.00,,,0.00,VWS V14.00,2013-02-20 06:45:00,
2013-02-20 01:46:00,36.5,21.9,28.58,West,268,0.0,0.0,55,0.00,,,0.00,VWS V14.00,2013-02-20 06:46:00,
2013-02-20 01:47:00,36.3,20.4,28.58,West,267,2.2,2.2,52,0.00,,,0.00,VWS V14.00,2013-02-20 06:47:00,
2013-02-20 01:48:00,36.3,20.4,28.58,WNW,283,0.0,2.2,52,0.00,,,0.00,VWS V14.00,2013-02-20 06:48:00,
2013-02-20 01:49:00,36.3,20.4,28.58,NNW,328,0.0,0.0,52,0.00,,,0.00,VWS V14.00,2013-02-20 06:49:00,
2013-02-20 01:50:00,36.1,19.3,28.59,WNW,282,2.2,2.2,50,0.00,,,0.00,VWS V14.00,2013-02-20 06:50:00,
2013-02-20 01:51:00,36.1,19.3,28.58,WNW,282,2.2,2.2,50,0.00,,,0.00,VWS V14.00,2013-02-20 06:51:00,
2013-02-20 01:52:00,36.3,19.0,28.58,WNW,290,0.0,2.2,49,0.00,,,0.00,VWS V14.00,2013-02-20 06:52:00,
2013-02-20 01:53:00,36.3,19.0,28.58,WNW,284,0.0,3.6,49,0.00,,,0.00,VWS V14.00,2013-02-20 06:53:00,
2013-02-20 01:54:00,36.3,19.0,28.58,WNW,292,0.0,0.0,49,0.00,,,0.00,VWS V14.00,2013-02-20 06:54:00,
2013-02-20 01:55:00,36.1,16.9,28.59,West,275,0.0,0.0,45,0.00,,,0.00,VWS V14.00,2013-02-20 06:55:00,
2013-02-20 01:56:00,36.1,16.9,28.58,West,275,0.0,0.0,45,0.00,,,0.00,VWS V14.00,2013-02-20 06:56:00,
2013-02-20 01:57:00,36.1,16.9,28.58,West,276,0.0,2.2,45,0.00,,,0.00,VWS V14.00,2013-02-20 06:57:00,
2013-02-20 01:58:00,36.5,17.2,28.58,West,274,0.0,0.0,45,0.00,,,0.00,VWS V14.00,2013-02-20 06:58:00,
2013-02-20 01:59:00,36.5,16.7,28.58,West,274,0.0,0.0,44,0.00,,,0.00,VWS V14.00,2013-02-20 06:59:00,
2013-02-20 02:00:00,36.7,16.8,28.59,WNW,283,0.0,0.0,44,0.00,,,0.00,VWS V14.00,2013-02-20 07:00:00,
2013-02-20 02:01:00,36.7,16.8,28.58,WNW,283,0.0,0.0,44,0.00,,,0.00,VWS V14.00,2013-02-20 07:01:00,
2013-02-20 02:02:00,36.7,16.8,28.58,WNW,283,0.0,0.0,44,0.00,,,0.00,VWS V14.00,2013-02-20 07:02:00,
2013-02-20 02:03:00,36.7,17.4,28.58,WNW,283,0.0,0.0,45,0.00,,,0.00,VWS V14.00,2013-02-20 07:03:00,
2013-02-20 02:04:00,36.7,17.4,28.58,NNW,346,0.0,0.0,45,0.00,,,0.00,VWS V14.00,2013-02-20 07:04:00,
2013-02-20 02:05:00,36.7,16.3,28.59,West,276,0.0,0.0,43,0.00,,,0.00,VWS V14.00,2013-02-20 07:05:00,
2013-02-20 02:06:00,36.7,16.3,28.58,WSW,255,0.0,0.0,43,0.00,,,0.00,VWS V14.00,2013-02-20 07:06:00,
2013-02-20 02:07:00,36.7,15.8,28.58,West,279,0.0,0.0,42,0.00,,,0.00,VWS V14.00,2013-02-20 07:07:00,
2013-02-20 02:08:00,36.7,15.8,28.58,WSW,253,0.0,0.0,42,0.00,,,0.00,VWS V14.00,2013-02-20 07:08:00,
2013-02-20 02:09:00,36.7,15.8,28.58,West,260,0.0,0.0,42,0.00,,,0.00,VWS V14.00,2013-02-20 07:09:00,
2013-02-20 02:10:00,36.7,16.3,28.59,West,260,0.0,0.0,43,0.00,,,0.00,VWS V14.00,2013-02-20 07:10:00,
2013-02-20 02:11:00,36.7,16.3,28.58,West,260,0.0,0.0,43,0.00,,,0.00,VWS V14.00,2013-02-20 07:11:00,
2013-02-20 02:12:00,36.7,16.3,28.58,WSW,252,0.0,0.0,43,0.00,,,0.00,VWS V14.00,2013-02-20 07:12:00,
2013-02-20 02:13:00,36.7,16.3,28.58,West,275,0.0,0.0,43,0.00,,,0.00,VWS V14.00,2013-02-20 07:13:00,
2013-02-20 02:14:00,36.7,15.8,28.58,WSW,249,0.0,0.0,42,0.00,,,0.00,VWS V14.00,2013-02-20 07:14:00,
2013-02-20 02:15:00,36.7,15.8,28.59,WSW,249,0.0,0.0,42,0.00,,,0.00,VWS V14.00,2013-02-20 07:15:00,
2013-02-20 02:16:00,36.7,15.8,28.58,West,259,0.0,0.0,42,0.00,,,0.00,VWS V14.00,2013-02-20 07:16:00,
2013-02-20 02:17:00,36.7,15.8,28.58,SW,220,0.0,0.0,42,0.00,,,0.00,VWS V14.00,2013-02-20 07:17:00,
2013-02-20 02:18:00,36.7,15.8,28.58,SW,234,0.0,2.2,42,0.00,,,0.00,VWS V14.00,2013-02-20 07:18:00,
2013-02-20 02:19:00,36.7,15.8,28.58,SW,234,0.0,0.0,42,0.00,,,0.00,VWS V14.00,2013-02-20 07:19:00,
2013-02-20 02:20:00,36.7,16.3,28.59,WNW,285,0.0,0.0,43,0.00,,,0.00,VWS V14.00,2013-02-20 07:20:00,
2013-02-20 02:21:00,36.7,15.8,28.58,WNW,285,0.0,0.0,42,0.00,,,0.00,VWS V14.00,2013-02-20 07:21:00,
2013-02-20 02:22:00,36.5,15.6,28.58,WNW,285,0.0,0.0,42,0.00,,,0.00,VWS V14.00,2013-02-20 07:22:00,
2013-02-20 02:23:00,36.5,15.6,28.58,West,261,0.0,0.0,42,0.00,,,0.00,VWS V14.00,2013-02-20 07:23:00,
2013-02-20 02:24:00,36.3,15.4,28.58,West,266,0.0,0.0,42,0.00,,,0.00,VWS V14.00,2013-02-20 07:24:00,
2013-02-20 02:25:00,36.3,15.4,28.59,WNW,295,0.0,0.0,42,0.00,,,0.00,VWS V14.00,2013-02-20 07:25:00,
2013-02-20 02:26:00,36.3,15.4,28.58,WNW,295,0.0,0.0,42,0.00,,,0.00,VWS V14.00,2013-02-20 07:26:00,
2013-02-20 02:27:00,36.3,15.4,28.58,WSW,253,0.0,0.0,42,0.00,,,0.00,VWS V14.00,2013-02-20 07:27:00,
2013-02-20 02:28:00,36.1,15.3,28.58,West,276,0.0,0.0,42,0.00,,,0.00,VWS V14.00,2013-02-20 07:28:00,
2013-02-20 02:29:00,36.1,15.3,28.58,West,263,0.0,0.0,42,0.00,,,0.00,VWS V14.00,2013-02-20 07:29:00,
2013-02-20 02:30:00,36.1,15.3,28.59,WSW,247,0.0,2.2,42,0.00,,,0.00,VWS V14.00,2013-02-20 07:30:00,
2013-02-20 02:31:00,36.1,15.3,28.58,West,259,0.0,2.2,42,0.00,,,0.00,VWS V14.00,2013-02-20 07:31:00,
2013-02-20 02:32:00,36.0,14.6,28.58,West,270,0.0,4.5,41,0.00,,,0.00,VWS V14.00,2013-02-20 07:32:00,
2013-02-20 02:33:00,36.1,14.7,28.58,West,261,0.0,0.0,41,0.00,,,0.00,VWS V14.00,2013-02-20 07:33:00,
2013-02-20 02:34:00,36.0,14.6,28.58,West,261,0.0,0.0,41,0.00,,,0.00,VWS V14.00,2013-02-20 07:34:00,
2013-02-20 02:35:00,36.0,14.6,28.59,West,267,0.0,0.0,41,0.00,,,0.00,VWS V14.00,2013-02-20 07:35:00,
2013-02-20 02:36:00,36.0,14.6,28.58,West,275,0.0,0.0,41,0.00,,,0.00,VWS V14.00,2013-02-20 07:36:00,
2013-02-20 02:37:00,36.0,14.6,28.58,WSW,255,2.7,2.7,41,0.00,,,0.00,VWS V14.00,2013-02-20 07:37:00,
2013-02-20 02:38:00,36.1,14.7,28.58,NW,316,0.0,2.7,41,0.00,,,0.00,VWS V14.00,2013-02-20 07:38:00,
2013-02-20 02:39:00,36.1,14.7,28.58,WNW,282,0.0,0.0,41,0.00,,,0.00,VWS V14.00,2013-02-20 07:39:00,
2013-02-20 02:40:00,36.1,14.7,28.59,West,280,0.0,0.0,41,0.00,,,0.00,VWS V14.00,2013-02-20 07:40:00,
2013-02-20 02:41:00,36.1,14.7,28.58,WSW,244,0.0,0.0,41,0.00,,,0.00,VWS V14.00,2013-02-20 07:41:00,
2013-02-20 02:42:00,36.3,14.9,28.58,SW,229,0.0,4.0,41,0.00,,,0.00,VWS V14.00,2013-02-20 07:42:00,
2013-02-20 02:43:00,36.5,14.5,28.58,WSW,257,0.0,0.0,40,0.00,,,0.00,VWS V14.00,2013-02-20 07:43:00,
2013-02-20 02:44:00,36.5,14.5,28.58,WSW,246,3.1,3.1,40,0.00,,,0.00,VWS V14.00,2013-02-20 07:44:00,
2013-02-20 02:45:00,36.5,14.5,28.59,SW,234,0.0,0.0,40,0.00,,,0.00,VWS V14.00,2013-02-20 07:45:00,
2013-02-20 02:46:00,36.7,14.6,28.58,SW,235,0.0,0.0,40,0.00,,,0.00,VWS V14.00,2013-02-20 07:46:00,
2013-02-20 02:47:00,36.7,14.6,28.58,SW,235,0.0,0.0,40,0.00,,,0.00,VWS V14.00,2013-02-20 07:47:00,
2013-02-20 02:48:00,36.7,14.6,28.58,WSW,244,0.0,0.0,40,0.00,,,0.00,VWS V14.00,2013-02-20 07:48:00,
2013-02-20 02:49:00,36.7,14.6,28.58,West,265,2.7,2.7,40,0.00,,,0.00,VWS V14.00,2013-02-20 07:49:00,
2013-02-20 02:50:00,36.7,14.6,28.59,West,265,0.0,0.0,40,0.00,,,0.00,VWS V14.00,2013-02-20 07:50:00,
2013-02-20 02:51:00,36.9,14.8,28.58,West,279,0.0,0.0,40,0.00,,,0.00,VWS V14.00,2013-02-20 07:51:00,
2013-02-20 02:52:00,36.9,14.8,28.58,West,279,0.0,0.0,40,0.00,,,0.00,VWS V14.00,2013-02-20 07:52:00,
2013-02-20 02:53:00,36.9,15.4,28.58,WNW,299,0.0,0.0,41,0.00,,,0.00,VWS V14.00,2013-02-20 07:53:00,
2013-02-20 02:54:00,36.9,15.4,28.58,WNW,298,0.0,0.0,41,0.00,,,0.00,VWS V14.00,2013-02-20 07:54:00,
2013-02-20 02:55:00,36.5,15.1,28.59,NNW,329,0.0,0.0,41,0.00,,,0.00,VWS V14.00,2013-02-20 07:55:00,
2013-02-20 02:56:00,36.3,14.9,28.58,NW,319,0.0,0.0,41,0.00,,,0.00,VWS V14.00,2013-02-20 07:56:00,
2013-02-20 02:57:00,36.3,14.9,28.58,West,278,0.0,0.0,41,0.00,,,0.00,VWS V14.00,2013-02-20 07:57:00,
2013-02-20 02:58:00,36.1,14.2,28.58,West,267,0.0,0.0,40,0.00,,,0.00,VWS V14.00,2013-02-20 07:58:00,
2013-02-20 02:59:00,36.1,14.7,28.58,WNW,300,0.0,0.0,41,0.00,,,0.00,VWS V14.00,2013-02-20 07:59:00,
2013-02-20 03:00:00,36.1,14.7,28.59,WNW,283,0.0,0.0,41,0.00,,,0.00,VWS V14.00,2013-02-20 08:00:00,
2013-02-20 03:01:00,36.1,14.7,28.58,WNW,295,0.0,0.0,41,0.00,,,0.00,VWS V14.00,2013-02-20 08:01:00,
2013-02-20 03:02:00,36.0,14.6,28.58,NW,314,0.0,0.0,41,0.00,,,0.00,VWS V14.00,2013-02-20 08:02:00,
2013-02-20 03:03:00,35.8,13.8,28.58,WNW,299,2.7,2.7,40,0.00,,,0.00,VWS V14.00,2013-02-20 08:03:00,
2013-02-20 03:04:00,35.8,13.8,28.58,WNW,303,0.0,2.7,40,0.00,,,0.00,VWS V14.00,2013-02-20 08:04:00,
2013-02-20 03:05:00,35.8,13.8,28.59,West,266,0.0,0.0,40,0.00,,,0.00,VWS V14.00,2013-02-20 08:05:00,
2013-02-20 03:06:00,36.0,14.0,28.58,West,266,0.0,0.0,40,0.00,,,0.00,VWS V14.00,2013-02-20 08:06:00,
2013-02-20 03:07:00,36.0,14.0,28.58,WNW,288,0.0,0.0,40,0.00,,,0.00,VWS V14.00,2013-02-20 08:07:00,
2013-02-20 03:08:00,36.0,14.0,28.58,West,272,0.0,0.0,40,0.00,,,0.00,VWS V14.00,2013-02-20 08:08:00,
2013-02-20 03:09:00,36.0,14.0,28.58,West,265,0.0,0.0,40,0.00,,,0.00,VWS V14.00,2013-02-20 08:09:00,
2013-02-20 03:10:00,36.0,14.0,28.59,West,270,0.0,0.0,40,0.00,,,0.00,VWS V14.00,2013-02-20 08:10:00,
2013-02-20 03:11:00,36.0,14.0,28.58,WNW,302,0.0,0.0,40,0.00,,,0.00,VWS V14.00,2013-02-20 08:11:00,
2013-02-20 03:12:00,36.0,14.0,28.58,WNW,303,0.0,0.0,40,0.00,,,0.00,VWS V14.00,2013-02-20 08:12:00,
2013-02-20 03:13:00,35.8,13.8,28.58,WNW,300,0.0,0.0,40,0.00,,,0.00,VWS V14.00,2013-02-20 08:13:00,
2013-02-20 03:14:00,35.8,13.8,28.58,West,270,0.0,0.0,40,0.00,,,0.00,VWS V14.00,2013-02-20 08:14:00,
2013-02-20 03:15:00,35.8,13.8,28.59,WNW,300,0.0,0.0,40,0.00,,,0.00,VWS V14.00,2013-02-20 08:15:00,
2013-02-20 03:16:00,35.8,13.8,28.58,WNW,295,0.0,0.0,40,0.00,,,0.00,VWS V14.00,2013-02-20 08:16:00,
2013-02-20 03:17:00,36.0,14.0,28.58,WNW,295,0.0,0.0,40,0.00,,,0.00,VWS V14.00,2013-02-20 08:17:00,
2013-02-20 03:18:00,36.0,14.0,28.58,West,262,0.0,0.0,40,0.00,,,0.00,VWS V14.00,2013-02-20 08:18:00,
2013-02-20 03:19:00,36.0,14.0,28.58,West,262,0.0,0.0,40,0.00,,,0.00,VWS V14.00,2013-02-20 08:19:00,
2013-02-20 03:20:00,36.0,14.0,28.59,WNW,300,0.0,0.0,40,0.00,,,0.00,VWS V14.00,2013-02-20 08:20:00,
2013-02-20 03:21:00,36.0,14.0,28.58,WSW,255,0.0,0.0,40,0.00,,,0.00,VWS V14.00,2013-02-20 08:21:00,
2013-02-20 03:22:00,36.0,14.0,28.58,WNW,283,0.0,0.0,40,0.00,,,0.00,VWS V14.00,2013-02-20 08:22:00,
2013-02-20 03:23:00,36.0,14.0,28.58,West,266,0.0,0.0,40,0.00,,,0.00,VWS V14.00,2013-02-20 08:23:00,
2013-02-20 03:24:00,36.0,14.0,28.58,WSW,256,0.0,0.0,40,0.00,,,0.00,VWS V14.00,2013-02-20 08:24:00,
2013-02-20 03:25:00,36.0,14.0,28.59,West,269,0.0,0.0,40,0.00,,,0.00,VWS V14.00,2013-02-20 08:25:00,
2013-02-20 03:26:00,36.0,14.0,28.58,West,277,0.0,2.7,40,0.00,,,0.00,VWS V14.00,2013-02-20 08:26:00,
2013-02-20 03:27:00,36.0,14.0,28.58,West,261,0.0,0.0,40,0.00,,,0.00,VWS V14.00,2013-02-20 08:27:00,
2013-02-20 03:28:00,36.0,14.0,28.58,West,269,0.0,0.0,40,0.00,,,0.00,VWS V14.00,2013-02-20 08:28:00,
2013-02-20 03:29:00,36.0,14.0,28.58,NW,304,0.0,0.0,40,0.00,,,0.00,VWS V14.00,2013-02-20 08:29:00,
2013-02-20 03:30:00,36.0,14.0,28.59,West,261,0.0,0.0,40,0.00,,,0.00,VWS V14.00,2013-02-20 08:30:00,
2013-02-20 03:31:00,36.0,14.0,28.58,West,262,0.0,0.0,40,0.00,,,0.00,VWS V14.00,2013-02-20 08:31:00,
2013-02-20 03:32:00,36.0,14.0,28.58,WSW,255,0.0,0.0,40,0.00,,,0.00,VWS V14.00,2013-02-20 08:32:00,
2013-02-20 03:33:00,36.0,14.0,28.58,WSW,250,0.0,0.0,40,0.00,,,0.00,VWS V14.00,2013-02-20 08:33:00,
2013-02-20 03:34:00,36.0,14.0,28.58,WNW,294,0.0,0.0,40,0.00,,,0.00,VWS V14.00,2013-02-20 08:34:00,
2013-02-20 03:35:00,36.0,14.0,28.59,NW,315,0.0,0.0,40,0.00,,,0.00,VWS V14.00,2013-02-20 08:35:00,
2013-02-20 03:36:00,36.0,14.0,28.58,WNW,290,0.0,0.0,40,0.00,,,0.00,VWS V14.00,2013-02-20 08:36:00,
2013-02-20 03:37:00,35.8,13.8,28.58,WNW,290,0.0,0.0,40,0.00,,,0.00,VWS V14.00,2013-02-20 08:37:00,
2013-02-20 03:38:00,35.8,13.8,28.58,WNW,290,0.0,0.0,40,0.00,,,0.00,VWS V14.00,2013-02-20 08:38:00,
2013-02-20 03:39:00,35.6,13.7,28.58,WNW,291,0.0,0.0,40,0.00,,,0.00,VWS V14.00,2013-02-20 08:39:00,
2013-02-20 03:40:00,35.6,13.7,28.59,WNW,287,0.0,0.0,40,0.00,,,0.00,VWS V14.00,2013-02-20 08:40:00,
2013-02-20 03:41:00,35.6,13.7,28.58,WNW,282,0.0,0.0,40,0.00,,,0.00,VWS V14.00,2013-02-20 08:41:00,
2013-02-20 03:42:00,35.4,14.1,28.58,West,260,0.0,0.0,41,0.00,,,0.00,VWS V14.00,2013-02-20 08:42:00,
2013-02-20 03:43:00,35.4,14.1,28.58,West,272,0.0,0.0,41,0.00,,,0.00,VWS V14.00,2013-02-20 08:43:00,
2013-02-20 03:44:00,35.4,14.1,28.58,West,265,0.0,0.0,41,0.00,,,0.00,VWS V14.00,2013-02-20 08:44:00,
2013-02-20 03:45:00,35.2,13.4,28.59,WNW,288,0.0,0.0,40,0.00,,,0.00,VWS V14.00,2013-02-20 08:45:00,
2013-02-20 03:46:00,35.2,13.4,28.58,West,274,0.0,0.0,40,0.00,,,0.00,VWS V14.00,2013-02-20 08:46:00,
2013-02-20 03:47:00,35.2,13.4,28.58,NW,313,0.0,0.0,40,0.00,,,0.00,VWS V14.00,2013-02-20 08:47:00,
2013-02-20 03:48:00,35.4,14.1,28.58,WNW,301,0.0,0.0,41,0.00,,,0.00,VWS V14.00,2013-02-20 08:48:00,
2013-02-20 03:49:00,35.2,13.9,28.58,WNW,295,0.0,0.0,41,0.00,,,0.00,VWS V14.00,2013-02-20 08:49:00,
2013-02-20 03:50:00,35.2,13.9,28.59,NW,317,0.0,0.0,41,0.00,,,0.00,VWS V14.00,2013-02-20 08:50:00,
2013-02-20 03:51:00,35.2,13.9,28.58,NW,312,0.0,0.0,41,0.00,,,0.00,VWS V14.00,2013-02-20 08:51:00,
2013-02-20 03:52:00,35.2,13.9,28.58,NW,312,0.0,0.0,41,0.00,,,0.00,VWS V14.00,2013-02-20 08:52:00,
2013-02-20 03:53:00,35.2,13.9,28.58,NW,314,0.0,0.0,41,0.00,,,0.00,VWS V14.00,2013-02-20 08:53:00,
2013-02-20 03:54:00,35.1,13.8,28.58,NW,312,0.0,0.0,41,0.00,,,0.00,VWS V14.00,2013-02-20 08:54:00,
2013-02-20 03:55:00,35.1,13.8,28.59,NW,322,0.0,0.0,41,0.00,,,0.00,VWS V14.00,2013-02-20 08:55:00,
2013-02-20 03:56:00,35.1,13.8,28.58,WSW,243,0.0,0.0,41,0.00,,,0.00,VWS V14.00,2013-02-20 08:56:00,
2013-02-20 03:57:00,34.9,13.6,28.58,WSW,244,0.0,0.0,41,0.00,,,0.00,VWS V14.00,2013-02-20 08:57:00,
2013-02-20 03:58:00,34.9,13.6,28.58,WSW,249,0.0,0.0,41,0.00,,,0.00,VWS V14.00,2013-02-20 08:58:00,
2013-02-20 03:59:00,34.9,13.6,28.58,WSW,249,0.0,0.0,41,0.00,,,0.00,VWS V14.00,2013-02-20 08:59:00,
2013-02-20 04:00:00,34.9,13.6,28.59,WNW,301,0.0,0.0,41,0.00,,,0.00,VWS V14.00,2013-02-20 09:00:00,
2013-02-20 04:01:00,34.5,13.3,28.58,NW,308,0.0,0.0,41,0.00,,,0.00,VWS V14.00,2013-02-20 09:01:00,
2013-02-20 04:02:00,34.5,13.3,28.58,NW,308,0.0,0.0,41,0.00,,,0.00,VWS V14.00,2013-02-20 09:02:00,
2013-02-20 04:03:00,34.5,13.3,28.58,NW,313,0.0,0.0,41,0.00,,,0.00,VWS V14.00,2013-02-20 09:03:00,
2013-02-20 04:04:00,34.5,13.3,28.58,West,266,0.0,0.0,41,0.00,,,0.00,VWS V14.00,2013-02-20 09:04:00,
2013-02-20 04:05:00,34.5,13.3,28.59,WNW,290,0.0,0.0,41,0.00,,,0.00,VWS V14.00,2013-02-20 09:05:00,
2013-02-20 04:06:00,34.5,13.3,28.58,WNW,295,0.0,0.0,41,0.00,,,0.00,VWS V14.00,2013-02-20 09:06:00,
2013-02-20 04:07:00,34.5,13.3,28.58,West,279,0.0,0.0,41,0.00,,,0.00,VWS V14.00,2013-02-20 09:07:00,
2013-02-20 04:08:00,34.2,12.9,28.58,WNW,297,0.0,0.0,41,0.00,,,0.00,VWS V14.00,2013-02-20 09:08:00,
2013-02-20 04:09:00,34.2,12.9,28.58,WNW,297,0.0,0.0,41,0.00,,,0.00,VWS V14.00,2013-02-20 09:09:00,
2013-02-20 04:10:00,34.2,12.9,28.59,WNW,291,0.0,0.0,41,0.00,,,0.00,VWS V14.00,2013-02-20 09:10:00,
2013-02-20 04:11:00,34.2,12.9,28.58,WNW,291,0.0,0.0,41,0.00,,,0.00,VWS V14.00,2013-02-20 09:11:00,
2013-02-20 04:12:00,34.2,12.9,28.58,West,260,0.0,0.0,41,0.00,,,0.00,VWS V14.00,2013-02-20 09:12:00,
2013-02-20 04:13:00,34.3,13.1,28.58,West,260,0.0,0.0,41,0.00,,,0.00,VWS V14.00,2013-02-20 09:13:00,
2013-02-20 04:14:00,34.3,13.1,28.58,West,271,0.0,0.0,41,0.00,,,0.00,VWS V14.00,2013-02-20 09:14:00,
2013-02-20 04:15:00,34.3,13.1,28.59,West,271,0.0,0.0,41,0.00,,,0.00,VWS V14.00,2013-02-20 09:15:00,
2013-02-20 04:16:00,34.3,13.1,28.58,West,271,0.0,0.0,41,0.00,,,0.00,VWS V14.00,2013-02-20 09:16:00,
2013-02-20 04:17:00,34.3,13.1,28.58,West,268,2.2,3.1,41,0.00,,,0.00,VWS V14.00,2013-02-20 09:17:00,
2013-02-20 04:18:00,34.3,13.1,28.58,West,266,0.0,2.2,41,0.00,,,0.00,VWS V14.00,2013-02-20 09:18:00,
2013-02-20 04:19:00,34.3,12.5,28.58,West,277,2.7,2.7,40,0.00,,,0.00,VWS V14.00,2013-02-20 09:19:00,
2013-02-20 04:20:00,34.5,13.3,28.59,West,264,0.0,0.0,41,0.00,,,0.00,VWS V14.00,2013-02-20 09:20:00,
2013-02-20 04:21:00,34.5,13.3,28.58,West,264,0.0,0.0,41,0.00,,,0.00,VWS V14.00,2013-02-20 09:21:00,
2013-02-20 04:22:00,34.5,13.3,28.58,NW,310,0.0,2.2,41,0.00,,,0.00,VWS V14.00,2013-02-20 09:22:00,
2013-02-20 04:23:00,34.5,13.3,28.58,WSW,245,2.7,2.7,41,0.00,,,0.00,VWS V14.00,2013-02-20 09:23:00,
2013-02-20 04:24:00,34.5,13.3,28.58,WNW,300,0.0,4.0,41,0.00,,,0.00,VWS V14.00,2013-02-20 09:24:00,
2013-02-20 04:25:00,34.5,13.3,28.61,WNW,293,0.0,0.0,41,0.00,,,0.00,VWS V14.00,2013-02-20 09:25:00,
2013-02-20 04:26:00,34.5,13.3,28.61,WNW,293,0.0,0.0,41,0.00,,,0.00,VWS V14.00,2013-02-20 09:26:00,
2013-02-20 04:27:00,34.5,13.3,28.61,WSW,249,3.6,3.6,41,0.00,,,0.00,VWS V14.00,2013-02-20 09:27:00,
2013-02-20 04:28:00,34.5,12.7,28.61,West,273,0.0,3.6,40,0.00,,,0.00,VWS V14.00,2013-02-20 09:28:00,
2013-02-20 04:29:00,34.5,12.7,28.61,NW,310,0.0,3.1,40,0.00,,,0.00,VWS V14.00,2013-02-20 09:29:00,
2013-02-20 04:30:00,34.5,12.7,28.61,WNW,293,0.0,0.0,40,0.00,,,0.00,VWS V14.00,2013-02-20 09:30:00,
2013-02-20 04:31:00,34.5,12.7,28.61,WNW,293,0.0,0.0,40,0.00,,,0.00,VWS V14.00,2013-02-20 09:31:00,
2013-02-20 04:32:00,34.5,12.7,28.61,West,274,2.2,2.7,40,0.00,,,0.00,VWS V14.00,2013-02-20 09:32:00,
2013-02-20 04:33:00,34.5,12.7,28.61,West,271,0.0,2.2,40,0.00,,,0.00,VWS V14.00,2013-02-20 09:33:00,
2013-02-20 04:34:00,34.5,12.7,28.61,West,267,0.0,3.6,40,0.00,,,0.00,VWS V14.00,2013-02-20 09:34:00,
2013-02-20 04:35:00,34.5,12.7,28.61,WNW,299,2.7,2.7,40,0.00,,,0.00,VWS V14.00,2013-02-20 09:35:00,
2013-02-20 04:36:00,34.5,12.7,28.61,WNW,296,2.7,2.7,40,0.00,,,0.00,VWS V14.00,2013-02-20 09:36:00,
2013-02-20 04:37:00,34.5,12.7,28.61,WNW,296,0.0,2.7,40,0.00,,,0.00,VWS V14.00,2013-02-20 09:37:00,
2013-02-20 04:38:00,34.5,12.7,28.61,WNW,296,0.0,0.0,40,0.00,,,0.00,VWS V14.00,2013-02-20 09:38:00,
2013-02-20 04:39:00,34.5,13.3,28.61,West,259,2.7,2.7,41,0.00,,,0.00,VWS V14.00,2013-02-20 09:39:00,
2013-02-20 04:40:00,34.3,12.5,28.61,West,280,0.0,0.0,40,0.00,,,0.00,VWS V14.00,2013-02-20 09:40:00,
2013-02-20 04:41:00,34.3,12.5,28.61,West,271,0.0,0.0,40,0.00,,,0.00,VWS V14.00,2013-02-20 09:41:00,
2013-02-20 04:42:00,34.3,12.5,28.61,West,279,0.0,0.0,40,0.00,,,0.00,VWS V14.00,2013-02-20 09:42:00,
2013-02-20 04:43:00,34.3,12.5,28.61,WNW,284,0.0,0.0,40,0.00,,,0.00,VWS V14.00,2013-02-20 09:43:00,
2013-02-20 04:44:00,34.5,12.7,28.61,NNW,330,2.7,2.7,40,0.00,,,0.00,VWS V14.00,2013-02-20 09:44:00,
2013-02-20 04:45:00,34.5,12.7,28.61,West,263,2.7,2.7,40,0.00,,,0.00,VWS V14.00,2013-02-20 09:45:00,
2013-02-20 04:46:00,34.5,12.7,28.61,West,269,3.6,3.6,40,0.00,,,0.00,VWS V14.00,2013-02-20 09:46:00,
2013-02-20 04:47:00,34.5,12.7,28.61,West,277,0.0,3.6,40,0.00,,,0.00,VWS V14.00,2013-02-20 09:47:00,
2013-02-20 04:48:00,34.5,12.7,28.61,West,260,3.1,3.1,40,0.00,,,0.00,VWS V14.00,2013-02-20 09:48:00,
2013-02-20 04:49:00,34.5,12.7,28.61,West,278,3.1,3.1,40,0.00,,,0.00,VWS V14.00,2013-02-20 09:49:00,
2013-02-20 04:50:00,34.5,12.7,28.61,NW,320,2.7,2.7,40,0.00,,,0.00,VWS V14.00,2013-02-20 09:50:00,
2013-02-20 04:51:00,34.5,12.7,28.61,NW,306,0.0,2.7,40,0.00,,,0.00,VWS V14.00,2013-02-20 09:51:00,
2013-02-20 04:52:00,34.5,12.7,28.61,West,279,0.0,2.7,40,0.00,,,0.00,VWS V14.00,2013-02-20 09:52:00,
2013-02-20 04:53:00,34.5,12.7,28.61,SW,230,3.1,3.1,40,0.00,,,0.00,VWS V14.00,2013-02-20 09:53:00,
2013-02-20 04:54:00,34.5,12.7,28.61,NW,305,0.0,3.1,40,0.00,,,0.00,VWS V14.00,2013-02-20 09:54:00,
2013-02-20 04:55:00,34.5,12.7,28.61,West,278,2.2,2.2,40,0.00,,,0.00,VWS V14.00,2013-02-20 09:55:00,
2013-02-20 04:56:00,34.5,12.7,28.61,West,267,0.0,2.7,40,0.00,,,0.00,VWS V14.00,2013-02-20 09:56:00,
2013-02-20 04:57:00,34.5,12.7,28.61,West,279,0.0,2.7,40,0.00,,,0.00,VWS V14.00,2013-02-20 09:57:00,
2013-02-20 04:58:00,34.3,12.5,28.61,West,270,3.1,3.1,40,0.00,,,0.00,VWS V14.00,2013-02-20 09:58:00,
2013-02-20 04:59:00,34.3,12.5,28.61,WNW,293,0.0,3.1,40,0.00,,,0.00,VWS V14.00,2013-02-20 09:59:00,
2013-02-20 05:00:00,34.3,12.5,28.61,West,274,3.1,3.1,40,0.00,,,0.00,VWS V14.00,2013-02-20 10:00:00,
2013-02-20 05:01:00,34.3,12.5,28.61,NW,324,3.1,3.1,40,0.00,,,0.00,VWS V14.00,2013-02-20 10:01:00,
2013-02-20 05:02:00,34.3,12.5,28.61,NW,306,2.7,3.6,40,0.00,,,0.00,VWS V14.00,2013-02-20 10:02:00,
2013-02-20 05:03:00,34.3,12.5,28.61,NW,307,0.0,2.7,40,0.00,,,0.00,VWS V14.00,2013-02-20 10:03:00,
2013-02-20 05:04:00,34.3,12.5,28.61,WSW,252,2.7,2.7,40,0.00,,,0.00,VWS V14.00,2013-02-20 10:04:00,
2013-02-20 05:05:00,34.3,12.5,28.61,West,273,0.0,2.7,40,0.00,,,0.00,VWS V14.00,2013-02-20 10:05:00,
2013-02-20 05:06:00,34.3,12.5,28.61,West,264,0.0,2.7,40,0.00,,,0.00,VWS V14.00,2013-02-20 10:06:00,
2013-02-20 05:07:00,34.3,12.5,28.61,West,267,0.0,2.2,40,0.00,,,0.00,VWS V14.00,2013-02-20 10:07:00,
2013-02-20 05:08:00,34.3,12.5,28.61,WSW,252,3.6,3.6,40,0.00,,,0.00,VWS V14.00,2013-02-20 10:08:00,
2013-02-20 05:09:00,34.3,12.5,28.61,WSW,257,2.2,3.6,40,0.00,,,0.00,VWS V14.00,2013-02-20 10:09:00,
2013-02-20 05:10:00,34.3,12.5,28.61,WSW,257,2.2,2.2,40,0.00,,,0.00,VWS V14.00,2013-02-20 10:10:00,
2013-02-20 05:11:00,34.3,12.5,28.61,WNW,283,0.0,2.2,40,0.00,,,0.00,VWS V14.00,2013-02-20 10:11:00,
2013-02-20 05:12:00,34.3,12.5,28.61,WSW,242,3.1,3.1,40,0.00,,,0.00,VWS V14.00,2013-02-20 10:12:00,
2013-02-20 05:13:00,34.2,12.4,28.61,WSW,250,3.6,3.6,40,0.00,,,0.00,VWS V14.00,2013-02-20 10:13:00,
2013-02-20 05:14:00,34.2,12.4,28.61,WNW,288,3.1,3.6,40,0.00,,,0.00,VWS V14.00,2013-02-20 10:14:00,
2013-02-20 05:15:00,34.2,12.4,28.61,West,265,2.7,2.7,40,0.00,,,0.00,VWS V14.00,2013-02-20 10:15:00,
2013-02-20 05:16:00,34.2,12.4,28.61,West,265,2.7,2.7,40,0.00,,,0.00,VWS V14.00,2013-02-20 10:16:00,
2013-02-20 05:17:00,34.2,12.4,28.61,West,280,0.0,2.7,40,0.00,,,0.00,VWS V14.00,2013-02-20 10:17:00,
2013-02-20 05:18:00,34.2,12.4,28.61,WSW,250,3.1,3.1,40,0.00,,,0.00,VWS V14.00,2013-02-20 10:18:00,
2013-02-20 05:19:00,34.2,12.4,28.61,West,275,2.7,3.1,40,0.00,,,0.00,VWS V14.00,2013-02-20 10:19:00,
2013-02-20 05:20:00,34.2,12.4,28.61,WNW,295,2.2,2.2,40,0.00,,,0.00,VWS V14.00,2013-02-20 10:20:00,
2013-02-20 05:21:00,34.2,12.4,28.61,WNW,290,0.0,2.2,40,0.00,,,0.00,VWS V14.00,2013-02-20 10:21:00,
2013-02-20 05:22:00,34.2,12.4,28.61,WNW,290,0.0,0.0,40,0.00,,,0.00,VWS V14.00,2013-02-20 10:22:00,
2013-02-20 05:23:00,34.2,12.4,28.61,WNW,283,2.2,2.2,40,0.00,,,0.00,VWS V14.00,2013-02-20 10:23:00,
2013-02-20 05:24:00,34.2,12.4,28.61,WNW,282,0.0,3.1,40,0.00,,,0.00,VWS V14.00,2013-02-20 10:24:00,
2013-02-20 05:25:00,34.2,12.4,28.61,West,274,0.0,0.0,40,0.00,,,0.00,VWS V14.00,2013-02-20 10:25:00,
2013-02-20 05:26:00,34.2,12.4,28.61,WNW,298,0.0,0.0,40,0.00,,,0.00,VWS V14.00,2013-02-20 10:26:00,
2013-02-20 05:27:00,34.2,12.4,28.61,WNW,298,0.0,0.0,40,0.00,,,0.00,VWS V14.00,2013-02-20 10:27:00,
2013-02-20 05:28:00,34.0,12.2,28.61,NW,311,0.0,0.0,40,0.00,,,0.00,VWS V14.00,2013-02-20 10:28:00,
2013-02-20 05:29:00,34.0,12.2,28.61,NW,311,0.0,0.0,40,0.00,,,0.00,VWS V14.00,2013-02-20 10:29:00,
2013-02-20 05:30:00,34.0,12.2,28.61,West,262,0.0,0.0,40,0.00,,,0.00,VWS V14.00,2013-02-20 10:30:00,
2013-02-20 05:31:00,34.0,12.2,28.61,West,262,0.0,0.0,40,0.00,,,0.00,VWS V14.00,2013-02-20 10:31:00,
2013-02-20 05:32:00,34.0,12.2,28.61,West,262,0.0,0.0,40,0.00,,,0.00,VWS V14.00,2013-02-20 10:32:00,
2013-02-20 05:33:00,34.0,12.2,28.61,West,262,0.0,0.0,40,0.00,,,0.00,VWS V14.00,2013-02-20 10:33:00,
2013-02-20 05:34:00,33.8,12.1,28.61,NW,308,0.0,0.0,40,0.00,,,0.00,VWS V14.00,2013-02-20 10:34:00,
2013-02-20 05:35:00,33.8,12.1,28.61,WSW,239,0.0,0.0,40,0.00,,,0.00,VWS V14.00,2013-02-20 10:35:00,
2013-02-20 05:36:00,33.8,12.1,28.61,WSW,254,0.0,0.0,40,0.00,,,0.00,VWS V14.00,2013-02-20 10:36:00,
2013-02-20 05:37:00,33.6,12.4,28.61,WSW,255,0.0,0.0,41,0.00,,,0.00,VWS V14.00,2013-02-20 10:37:00,
2013-02-20 05:38:00,33.6,12.4,28.61,WSW,240,3.1,3.1,41,0.00,,,0.00,VWS V14.00,2013-02-20 10:38:00,
2013-02-20 05:39:00,33.6,12.4,28.61,West,259,3.6,3.6,41,0.00,,,0.00,VWS V14.00,2013-02-20 10:39:00,
2013-02-20 05:40:00,33.6,12.4,28.61,West,279,0.0,3.1,41,0.00,,,0.00,VWS V14.00,2013-02-20 10:40:00,
2013-02-20 05:41:00,33.6,12.4,28.61,West,272,3.6,5.4,41,0.00,,,0.00,VWS V14.00,2013-02-20 10:41:00,
2013-02-20 05:42:00,33.6,12.4,28.61,West,271,4.0,4.0,41,0.00,,,0.00,VWS V14.00,2013-02-20 10:42:00,
2013-02-20 05:43:00,33.6,12.4,28.61,West,275,3.1,5.8,41,0.00,,,0.00,VWS V14.00,2013-02-20 10:43:00,
2013-02-20 05:44:00,33.6,12.4,28.61,WNW,294,4.9,4.9,41,0.00,,,0.00,VWS V14.00,2013-02-20 10:44:00,
2013-02-20 05:45:00,33.6,12.4,28.61,WSW,256,2.7,2.7,41,0.00,,,0.00,VWS V14.00,2013-02-20 10:45:00,
2013-02-20 05:46:00,33.6,12.4,28.61,West,275,0.0,2.7,41,0.00,,,0.00,VWS V14.00,2013-02-20 10:46:00,
2013-02-20 05:47:00,33.6,12.4,28.61,WNW,299,4.0,4.0,41,0.00,,,0.00,VWS V14.00,2013-02-20 10:47:00,
2013-02-20 05:48:00,33.6,12.4,28.61,South,190,2.7,4.0,41,0.00,,,0.00,VWS V14.00,2013-02-20 10:48:00,
2013-02-20 05:49:00,33.8,12.1,28.61,WNW,288,0.0,2.7,40,0.00,,,0.00,VWS V14.00,2013-02-20 10:49:00,
2013-02-20 05:50:00,33.8,12.1,28.61,West,275,0.0,2.7,40,0.00,,,0.00,VWS V14.00,2013-02-20 10:50:00,
2013-02-20 05:51:00,33.8,12.1,28.61,WSW,256,0.0,2.7,40,0.00,,,0.00,VWS V14.00,2013-02-20 10:51:00,
2013-02-20 05:52:00,33.8,12.1,28.64,WNW,294,2.2,2.2,40,0.00,,,0.00,VWS V14.00,2013-02-20 10:52:00,
2013-02-20 05:53:00,33.8,12.1,28.64,WSW,244,0.0,2.2,40,0.00,,,0.00,VWS V14.00,2013-02-20 10:53:00,
2013-02-20 05:54:00,33.6,12.4,28.64,WSW,244,0.0,0.0,41,0.00,,,0.00,VWS V14.00,2013-02-20 10:54:00,
2013-02-20 05:55:00,33.8,12.1,28.64,West,264,2.7,2.7,40,0.00,,,0.00,VWS V14.00,2013-02-20 10:55:00,
2013-02-20 05:56:00,33.8,12.1,28.64,West,262,2.2,2.7,40,0.00,,,0.00,VWS V14.00,2013-02-20 10:56:00,
2013-02-20 05:57:00,33.8,12.1,28.64,WNW,292,2.2,2.7,40,0.00,,,0.00,VWS V14.00,2013-02-20 10:57:00,
2013-02-20 05:58:00,33.8,12.1,28.64,West,274,0.0,2.2,40,0.00,,,0.00,VWS V14.00,2013-02-20 10:58:00,
2013-02-20 05:59:00,33.6,12.4,28.64,West,259,3.6,3.6,41,0.00,,,0.00,VWS V14.00,2013-02-20 10:59:00,
2013-02-20 06:00:00,33.6,12.4,28.64,NW,314,2.7,2.7,41,0.00,,,0.00,VWS V14.00,2013-02-20 11:00:00,
2013-02-20 06:01:00,33.6,12.4,28.64,NW,314,2.7,2.7,41,0.00,,,0.00,VWS V14.00,2013-02-20 11:01:00,
2013-02-20 06:02:00,33.6,12.4,28.64,NW,311,0.0,2.7,41,0.00,,,0.00,VWS V14.00,2013-02-20 11:02:00,
2013-02-20 06:03:00,33.4,12.3,28.64,NW,310,0.0,0.0,41,0.00,,,0.00,VWS V14.00,2013-02-20 11:03:00,
2013-02-20 06:04:00,33.4,12.3,28.64,WNW,301,2.7,3.1,41,0.00,,,0.00,VWS V14.00,2013-02-20 11:04:00,
2013-02-20 06:05:00,33.4,12.3,28.64,WNW,297,5.4,5.4,41,0.00,,,0.00,VWS V14.00,2013-02-20 11:05:00,
2013-02-20 06:06:00,33.4,12.3,28.64,WNW,297,5.4,5.4,41,0.00,,,0.00,VWS V14.00,2013-02-20 11:06:00,
2013-02-20 06:07:00,33.4,12.3,28.64,West,273,2.7,5.4,41,0.00,,,0.00,VWS V14.00,2013-02-20 11:07:00,
2013-02-20 06:08:00,33.3,12.1,28.64,WNW,299,0.0,2.7,41,0.00,,,0.00,VWS V14.00,2013-02-20 11:08:00,
2013-02-20 06:09:00,33.3,12.1,28.64,WNW,288,0.0,0.0,41,0.00,,,0.00,VWS V14.00,2013-02-20 11:09:00,
2013-02-20 06:10:00,33.3,12.1,28.64,West,274,0.0,0.0,41,0.00,,,0.00,VWS V14.00,2013-02-20 11:10:00,
2013-02-20 06:11:00,33.3,12.1,28.64,West,274,0.0,0.0,41,0.00,,,0.00,VWS V14.00,2013-02-20 11:11:00,
2013-02-20 06:12:00,33.3,12.1,28.64,West,274,0.0,0.0,41,0.00,,,0.00,VWS V14.00,2013-02-20 11:12:00,
2013-02-20 06:13:00,33.3,12.1,28.64,WNW,284,0.0,0.0,41,0.00,,,0.00,VWS V14.00,2013-02-20 11:13:00,
2013-02-20 06:14:00,33.3,12.1,28.64,WNW,293,2.7,3.1,41,0.00,,,0.00,VWS V14.00,2013-02-20 11:14:00,
2013-02-20 06:15:00,33.3,12.1,28.64,West,270,3.1,3.1,41,0.00,,,0.00,VWS V14.00,2013-02-20 11:15:00,
2013-02-20 06:16:00,33.3,12.1,28.64,West,268,4.9,4.9,41,0.00,,,0.00,VWS V14.00,2013-02-20 11:16:00,
2013-02-20 06:17:00,33.4,12.3,28.64,NW,306,2.2,4.9,41,0.00,,,0.00,VWS V14.00,2013-02-20 11:17:00,
2013-02-20 06:18:00,33.4,12.3,28.64,WNW,302,0.0,2.2,41,0.00,,,0.00,VWS V14.00,2013-02-20 11:18:00,
2013-02-20 06:19:00,33.4,12.3,28.64,NW,312,0.0,0.0,41,0.00,,,0.00,VWS V14.00,2013-02-20 11:19:00,
2013-02-20 06:20:00,33.3,12.1,28.64,NW,304,0.0,0.0,41,0.00,,,0.00,VWS V14.00,2013-02-20 11:20:00,
2013-02-20 06:21:00,33.3,12.1,28.64,NW,315,0.0,0.0,41,0.00,,,0.00,VWS V14.00,2013-02-20 11:21:00,
2013-02-20 06:22:00,33.3,12.1,28.64,West,280,3.6,3.6,41,0.00,,,0.00,VWS V14.00,2013-02-20 11:22:00,
2013-02-20 06:23:00,33.3,12.1,28.64,NW,316,0.0,3.6,41,0.00,,,0.00,VWS V14.00,2013-02-20 11:23:00,
2013-02-20 06:24:00,33.3,12.1,28.64,WNW,293,0.0,0.0,41,0.00,,,0.00,VWS V14.00,2013-02-20 11:24:00,
2013-02-20 06:25:00,33.1,12.0,28.64,West,262,0.0,0.0,41,0.00,,,0.00,VWS V14.00,2013-02-20 11:25:00,
2013-02-20 06:26:00,33.1,12.0,28.64,West,278,0.0,0.0,41,0.00,,,0.00,VWS V14.00,2013-02-20 11:26:00,
2013-02-20 06:27:00,33.1,12.0,28.64,West,279,2.7,3.1,41,0.00,,,0.00,VWS V14.00,2013-02-20 11:27:00,
2013-02-20 06:28:00,33.3,12.1,28.64,West,277,0.0,2.7,41,0.00,,,0.00,VWS V14.00,2013-02-20 11:28:00,
2013-02-20 06:29:00,33.3,12.1,28.64,West,273,0.0,0.0,41,0.00,,,0.00,VWS V14.00,2013-02-20 11:29:00,
2013-02-20 06:30:00,33.3,12.1,28.64,WNW,287,0.0,0.0,41,0.00,,,0.00,VWS V14.00,2013-02-20 11:30:00,
2013-02-20 06:31:00,33.3,12.1,28.64,West,277,0.0,0.0,41,0.00,,,0.00,VWS V14.00,2013-02-20 11:31:00,
2013-02-20 06:32:00,33.3,12.1,28.64,WNW,295,0.0,0.0,41,0.00,,,0.00,VWS V14.00,2013-02-20 11:32:00,
2013-02-20 06:33:00,33.3,12.1,28.64,WNW,293,0.0,0.0,41,0.00,,,0.00,VWS V14.00,2013-02-20 11:33:00,
2013-02-20 06:34:00,33.3,12.1,28.64,WNW,293,0.0,0.0,41,0.00,,,0.00,VWS V14.00,2013-02-20 11:34:00,
2013-02-20 06:35:00,33.3,12.1,28.64,WNW,292,0.0,0.0,41,0.00,,,0.00,VWS V14.00,2013-02-20 11:35:00,
2013-02-20 06:36:00,33.3,12.1,28.64,WNW,292,0.0,0.0,41,0.00,,,0.00,VWS V14.00,2013-02-20 11:36:00,
2013-02-20 06:37:00,33.3,12.1,28.64,NW,308,0.0,0.0,41,0.00,,,0.00,VWS V14.00,2013-02-20 11:37:00,
2013-02-20 06:38:00,33.3,12.1,28.64,NW,308,0.0,0.0,41,0.00,,,0.00,VWS V14.00,2013-02-20 11:38:00,
2013-02-20 06:39:00,33.3,12.1,28.64,North,353,0.0,0.0,41,0.00,,,0.00,VWS V14.00,2013-02-20 11:39:00,
2013-02-20 06:40:00,33.1,12.0,28.64,North,353,0.0,0.0,41,0.00,,,0.00,VWS V14.00,2013-02-20 11:40:00,
2013-02-20 06:41:00,33.1,12.0,28.64,NNW,337,0.0,0.0,41,0.00,,,0.00,VWS V14.00,2013-02-20 11:41:00,
2013-02-20 06:42:00,33.1,12.0,28.64,NNW,331,0.0,0.0,41,0.00,,,0.00,VWS V14.00,2013-02-20 11:42:00,
2013-02-20 06:43:00,33.1,12.0,28.64,NNW,331,0.0,0.0,41,0.00,,,0.00,VWS V14.00,2013-02-20 11:43:00,
2013-02-20 06:44:00,33.1,12.0,28.64,NNW,331,0.0,0.0,41,0.00,,,0.00,VWS V14.00,2013-02-20 11:44:00,
2013-02-20 06:45:00,32.7,11.6,28.64,NW,321,0.0,0.0,41,0.00,,,0.00,VWS V14.00,2013-02-20 11:45:00,
2013-02-20 06:46:00,32.7,11.6,28.64,NW,321,0.0,0.0,41,0.00,,,0.00,VWS V14.00,2013-02-20 11:46:00,
2013-02-20 06:47:00,32.7,11.6,28.64,NW,321,0.0,0.0,41,0.00,,,0.00,VWS V14.00,2013-02-20 11:47:00,
2013-02-20 06:48:00,32.5,11.5,28.64,NW,321,0.0,0.0,41,0.00,,,0.00,VWS V14.00,2013-02-20 11:48:00,
2013-02-20 06:49:00,32.5,11.5,28.64,NW,321,0.0,0.0,41,0.00,,,0.00,VWS V14.00,2013-02-20 11:49:00,
2013-02-20 06:50:00,32.5,11.5,28.64,NW,307,0.0,0.0,41,0.00,,,0.00,VWS V14.00,2013-02-20 11:50:00,
2013-02-20 06:51:00,32.4,11.3,28.64,NW,306,0.0,0.0,41,0.00,,,0.00,VWS V14.00,2013-02-20 11:51:00,
2013-02-20 06:52:00,32.2,11.1,28.64,NW,304,0.0,0.0,41,0.00,,,0.00,VWS V14.00,2013-02-20 11:52:00,
2013-02-20 06:53:00,32.2,11.1,28.64,NW,304,0.0,0.0,41,0.00,,,0.00,VWS V14.00,2013-02-20 11:53:00,
2013-02-20 06:54:00,32.2,11.1,28.64,NW,304,0.0,0.0,41,0.00,,,0.00,VWS V14.00,2013-02-20 11:54:00,
2013-02-20 06:55:00,32.2,11.1,28.64,NW,304,0.0,0.0,41,0.00,,,0.00,VWS V14.00,2013-02-20 11:55:00,
2013-02-20 06:56:00,32.0,11.0,28.64,NW,304,0.0,0.0,41,0.00,,,0.00,VWS V14.00,2013-02-20 11:56:00,
2013-02-20 06:57:00,32.0,11.0,28.64,NW,304,0.0,0.0,41,0.00,,,0.00,VWS V14.00,2013-02-20 11:57:00,
2013-02-20 06:58:00,32.0,11.0,28.64,NW,304,0.0,0.0,41,0.00,,,0.00,VWS V14.00,2013-02-20 11:58:00,
2013-02-20 06:59:00,32.0,11.0,28.64,NW,304,0.0,0.0,41,0.00,,,0.00,VWS V14.00,2013-02-20 11:59:00,
2013-02-20 07:00:00,31.8,10.8,28.64,NW,304,0.0,0.0,41,0.00,,,0.00,VWS V14.00,2013-02-20 12:00:00,
2013-02-20 07:01:00,31.8,10.8,28.64,NW,304,0.0,0.0,41,0.00,,,0.00,VWS V14.00,2013-02-20 12:01:00,
2013-02-20 07:02:00,31.8,10.8,28.64,NW,304,0.0,0.0,41,0.00,,,0.00,VWS V14.00,2013-02-20 12:02:00,
2013-02-20 07:03:00,31.8,10.8,28.64,NW,304,0.0,0.0,41,0.00,,,0.00,VWS V14.00,2013-02-20 12:03:00,
2013-02-20 07:04:00,31.6,10.6,28.64,NW,304,0.0,0.0,41,0.00,,,0.00,VWS V14.00,2013-02-20 12:04:00,
2013-02-20 07:05:00,31.6,10.6,28.64,NW,304,0.0,0.0,41,0.00,,,0.00,VWS V14.00,2013-02-20 12:05:00,
2013-02-20 07:06:00,31.6,10.6,28.64,NW,304,0.0,0.0,41,0.00,,,0.00,VWS V14.00,2013-02-20 12:06:00,
2013-02-20 07:07:00,31.6,10.6,28.64,NW,304,0.0,0.0,41,0.00,,,0.00,VWS V14.00,2013-02-20 12:07:00,
2013-02-20 07:08:00,31.6,10.6,28.64,NW,304,0.0,0.0,41,0.00,,,0.00,VWS V14.00,2013-02-20 12:08:00,
2013-02-20 07:09:00,31.5,10.5,28.64,NW,304,0.0,0.0,41,0.00,,,0.00,VWS V14.00,2013-02-20 12:09:00,
2013-02-20 07:10:00,31.5,10.5,28.64,NW,304,0.0,0.0,41,0.00,,,0.00,VWS V14.00,2013-02-20 12:10:00,
2013-02-20 07:11:00,31.3,10.3,28.64,NW,304,0.0,0.0,41,0.00,,,0.00,VWS V14.00,2013-02-20 12:11:00,
2013-02-20 07:12:00,31.3,10.3,28.64,NW,304,0.0,0.0,41,0.00,,,0.00,VWS V14.00,2013-02-20 12:12:00,
2013-02-20 07:13:00,31.3,10.3,28.64,NW,304,0.0,0.0,41,0.00,,,0.00,VWS V14.00,2013-02-20 12:13:00,
2013-02-20 07:14:00,31.3,10.3,28.64,NW,304,0.0,0.0,41,0.00,,,0.00,VWS V14.00,2013-02-20 12:14:00,
2013-02-20 07:15:00,31.1,10.2,28.64,NW,304,0.0,0.0,41,0.00,,,0.00,VWS V14.00,2013-02-20 12:15:00,
2013-02-20 07:16:00,31.1,10.2,28.64,NW,304,0.0,0.0,41,0.00,,,0.00,VWS V14.00,2013-02-20 12:16:00,
2013-02-20 07:17:00,31.1,10.2,28.64,NW,304,0.0,0.0,41,0.00,,,0.00,VWS V14.00,2013-02-20 12:17:00,
2013-02-20 07:18:00,31.1,10.2,28.64,NW,304,0.0,0.0,41,0.00,,,0.00,VWS V14.00,2013-02-20 12:18:00,
2013-02-20 07:19:00,31.1,10.2,28.64,NW,304,0.0,0.0,41,0.00,,,0.00,VWS V14.00,2013-02-20 12:19:00,
2013-02-20 07:20:00,30.7,9.8,28.64,WSW,242,0.0,0.0,41,0.00,,,0.00,VWS V14.00,2013-02-20 12:20:00,
2013-02-20 07:21:00,30.7,9.8,28.64,WSW,242,0.0,0.0,41,0.00,,,0.00,VWS V14.00,2013-02-20 12:21:00,
2013-02-20 07:22:00,30.7,9.8,28.64,SW,230,2.7,2.7,41,0.00,,,0.00,VWS V14.00,2013-02-20 12:22:00,
2013-02-20 07:23:00,30.6,9.7,28.64,SW,230,2.2,2.7,41,0.00,,,0.00,VWS V14.00,2013-02-20 12:23:00,
2013-02-20 07:24:00,30.6,9.7,28.64,SW,230,2.2,2.2,41,0.00,,,0.00,VWS V14.00,2013-02-20 12:24:00,
2013-02-20 07:25:00,30.6,9.7,28.64,SW,230,0.0,0.0,41,0.00,,,0.00,VWS V14.00,2013-02-20 12:25:00,
2013-02-20 07:26:00,30.6,9.7,28.64,SW,230,2.2,2.2,41,0.00,,,0.00,VWS V14.00,2013-02-20 12:26:00,
2013-02-20 07:27:00,30.6,9.7,28.64,WSW,237,0.0,3.1,41,0.00,,,0.00,VWS V14.00,2013-02-20 12:27:00,
2013-02-20 07:28:00,30.6,9.7,28.64,WSW,237,0.0,0.0,41,0.00,,,0.00,VWS V14.00,2013-02-20 12:28:00,
2013-02-20 07:29:00,30.7,9.8,28.64,SW,230,2.7,3.1,41,0.00,,,0.00,VWS V14.00,2013-02-20 12:29:00,
2013-02-20 07:30:00,30.7,9.8,28.64,WSW,243,4.0,4.0,41,0.00,,,0.00,VWS V14.00,2013-02-20 12:30:00,
2013-02-20 07:31:00,30.9,10.0,28.64,SW,233,3.1,4.0,41,0.00,,,0.00,VWS V14.00,2013-02-20 12:31:00,
2013-02-20 07:32:00,31.1,10.2,28.64,SW,233,3.1,3.1,41,0.00,,,0.00,VWS V14.00,2013-02-20 12:32:00,
2013-02-20 07:33:00,31.1,10.2,28.64,SW,234,2.2,3.1,41,0.00,,,0.00,VWS V14.00,2013-02-20 12:33:00,
2013-02-20 07:34:00,31.3,10.3,28.64,WSW,250,0.0,2.2,41,0.00,,,0.00,VWS V14.00,2013-02-20 12:34:00,
2013-02-20 07:35:00,31.3,10.3,28.64,West,279,4.0,4.0,41,0.00,,,0.00,VWS V14.00,2013-02-20 12:35:00,
2013-02-20 07:36:00,31.8,10.8,28.64,West,265,4.9,4.9,41,0.00,,,0.00,VWS V14.00,2013-02-20 12:36:00,
2013-02-20 07:37:00,31.8,10.8,28.64,WSW,252,3.6,4.9,41,0.00,,,0.00,VWS V14.00,2013-02-20 12:37:00,
2013-02-20 07:38:00,32.0,11.0,28.64,WSW,253,4.0,4.0,41,0.00,,,0.00,VWS V14.00,2013-02-20 12:38:00,
2013-02-20 07:39:00,32.0,11.0,28.64,West,260,3.1,4.0,41,0.00,,,0.00,VWS V14.00,2013-02-20 12:39:00,
2013-02-20 07:40:00,32.0,11.0,28.64,WSW,248,4.9,4.9,41,0.00,,,0.00,VWS V14.00,2013-02-20 12:40:00,
2013-02-20 07:41:00,32.5,11.5,28.64,WSW,246,5.4,5.4,41,0.00,,,0.00,VWS V14.00,2013-02-20 12:41:00,
2013-02-20 07:42:00,32.5,11.5,28.64,SW,225,3.6,5.4,41,0.00,,,0.00,VWS V14.00,2013-02-20 12:42:00,
2013-02-20 07:43:00,32.7,11.6,28.64,NW,323,3.6,3.6,41,0.00,,,0.00,VWS V14.00,2013-02-20 12:43:00,
2013-02-20 07:44:00,32.9,11.8,28.64,WNW,288,0.0,3.6,41,0.00,,,0.00,VWS V14.00,2013-02-20 12:44:00,
2013-02-20 07:45:00,33.3,12.1,28.64,West,266,4.0,4.0,41,0.00,,,0.00,VWS V14.00,2013-02-20 12:45:00,
2013-02-20 07:46:00,33.3,12.1,28.64,WSW,248,2.2,4.0,41,0.00,,,0.00,VWS V14.00,2013-02-20 12:46:00,
2013-02-20 07:47:00,33.6,12.4,28.64,WSW,248,2.2,2.2,41,0.00,,,0.00,VWS V14.00,2013-02-20 12:47:00,
2013-02-20 07:48:00,33.6,12.4,28.64,WSW,248,2.2,2.2,41,0.00,,,0.00,VWS V14.00,2013-02-20 12:48:00,
2013-02-20 07:49:00,33.8,12.1,28.64,WNW,303,3.6,3.6,40,0.00,,,0.00,VWS V14.00,2013-02-20 12:49:00,
2013-02-20 07:50:00,33.8,12.1,28.64,West,270,2.2,2.2,40,0.00,,,0.00,VWS V14.00,2013-02-20 12:50:00,
2013-02-20 07:51:00,33.8,12.1,28.64,WSW,247,4.0,4.0,40,0.00,,,0.00,VWS V14.00,2013-02-20 12:51:00,
2013-02-20 07:52:00,33.8,12.1,28.67,WSW,257,0.0,4.0,40,0.00,,,0.00,VWS V14.00,2013-02-20 12:52:00,
2013-02-20 07:53:00,33.8,12.1,28.67,WSW,257,2.2,2.2,40,0.00,,,0.00,VWS V14.00,2013-02-20 12:53:00,
2013-02-20 07:54:00,34.0,12.2,28.67,WSW,258,3.1,3.6,40,0.00,,,0.00,VWS V14.00,2013-02-20 12:54:00,
2013-02-20 07:55:00,34.2,12.4,28.67,WSW,251,4.9,4.9,40,0.00,,,0.00,VWS V14.00,2013-02-20 12:55:00,
2013-02-20 07:56:00,34.2,12.4,28.67,West,276,4.0,4.9,40,0.00,,,0.00,VWS V14.00,2013-02-20 12:56:00,
2013-02-20 07:57:00,34.2,12.4,28.67,West,265,3.1,4.0,40,0.00,,,0.00,VWS V14.00,2013-02-20 12:57:00,
2013-02-20 07:58:00,34.3,12.5,28.67,NNW,338,0.0,3.1,40,0.00,,,0.00,VWS V14.00,2013-02-20 12:58:00,
2013-02-20 07:59:00,34.3,12.5,28.67,West,272,2.7,2.7,40,0.00,,,0.00,VWS V14.00,2013-02-20 12:59:00,
2013-02-20 08:00:00,34.3,12.5,28.67,WNW,299,2.7,2.7,40,0.00,,,0.00,VWS V14.00,2013-02-20 13:00:00,
2013-02-20 08:01:00,34.5,12.7,28.67,WNW,299,3.6,3.6,40,0.00,,,0.00,VWS V14.00,2013-02-20 13:01:00,
2013-02-20 08:02:00,34.5,12.7,28.67,SW,217,5.8,5.8,40,0.00,,,0.00,VWS V14.00,2013-02-20 13:02:00,
2013-02-20 08:03:00,34.5,12.7,28.67,WSW,240,3.6,5.8,40,0.00,,,0.00,VWS V14.00,2013-02-20 13:03:00,
2013-02-20 08:04:00,34.9,13.0,28.67,WNW,295,4.9,4.9,40,0.00,,,0.00,VWS V14.00,2013-02-20 13:04:00,
2013-02-20 08:05:00,34.9,13.0,28.67,WSW,240,2.7,2.7,40,0.00,,,0.00,VWS V14.00,2013-02-20 13:05:00,
2013-02-20 08:06:00,34.9,13.0,28.67,WSW,254,5.8,5.8,40,0.00,,,0.00,VWS V14.00,2013-02-20 13:06:00,
2013-02-20 08:07:00,35.1,13.2,28.67,WSW,240,3.6,5.8,40,0.00,,,0.00,VWS V14.00,2013-02-20 13:07:00,
2013-02-20 08:08:00,35.1,13.2,28.67,West,261,5.4,5.4,40,0.00,,,0.00,VWS V14.00,2013-02-20 13:08:00,
2013-02-20 08:09:00,35.1,13.2,28.67,WSW,258,2.7,5.4,40,0.00,,,0.00,VWS V14.00,2013-02-20 13:09:00,
2013-02-20 08:10:00,35.2,13.4,28.67,West,276,7.2,7.2,40,0.00,,,0.00,VWS V14.00,2013-02-20 13:10:00,
2013-02-20 08:11:00,35.2,13.4,28.67,NW,304,2.7,7.2,40,0.00,,,0.00,VWS V14.00,2013-02-20 13:11:00,
2013-02-20 08:12:00,35.4,13.5,28.67,NW,315,3.1,3.1,40,0.00,,,0.00,VWS V14.00,2013-02-20 13:12:00,
2013-02-20 08:13:00,35.4,13.5,28.67,WSW,250,3.6,5.4,40,0.00,,,0.00,VWS V14.00,2013-02-20 13:13:00,
2013-02-20 08:14:00,35.6,13.7,28.67,West,275,3.1,4.9,40,0.00,,,0.00,VWS V14.00,2013-02-20 13:14:00,
2013-02-20 08:15:00,35.6,13.7,28.67,SW,231,5.8,5.8,40,0.00,,,0.00,VWS V14.00,2013-02-20 13:15:00,
2013-02-20 08:16:00,35.6,13.7,28.67,West,269,4.9,5.8,40,0.00,,,0.00,VWS V14.00,2013-02-20 13:16:00,
2013-02-20 08:17:00,35.8,13.8,28.67,West,279,3.6,4.9,40,0.00,,,0.00,VWS V14.00,2013-02-20 13:17:00,
2013-02-20 08:18:00,35.8,13.8,28.67,WSW,245,3.6,4.9,40,0.00,,,0.00,VWS V14.00,2013-02-20 13:18:00,
2013-02-20 08:19:00,35.8,13.8,28.67,WSW,258,0.0,3.6,40,0.00,,,0.00,VWS V14.00,2013-02-20 13:19:00,
2013-02-20 08:20:00,36.0,14.0,28.67,WNW,295,0.0,2.2,40,0.00,,,0.00,VWS V14.00,2013-02-20 13:20:00,
2013-02-20 08:21:00,36.0,14.0,28.67,WSW,258,2.7,2.7,40,0.00,,,0.00,VWS V14.00,2013-02-20 13:21:00,
2013-02-20 08:22:00,36.0,14.0,28.67,WSW,247,3.6,5.4,40,0.00,,,0.00,VWS V14.00,2013-02-20 13:22:00,
2013-02-20 08:23:00,36.0,14.0,28.67,SW,221,2.7,3.6,40,0.00,,,0.00,VWS V14.00,2013-02-20 13:23:00,
2013-02-20 08:24:00,36.1,14.2,28.67,WSW,256,4.9,4.9,40,0.00,,,0.00,VWS V14.00,2013-02-20 13:24:00,
2013-02-20 08:25:00,36.1,14.2,28.67,WNW,297,2.7,2.7,40,0.00,,,0.00,VWS V14.00,2013-02-20 13:25:00,
2013-02-20 08:26:00,36.1,14.2,28.67,WSW,241,3.6,3.6,40,0.00,,,0.00,VWS V14.00,2013-02-20 13:26:00,
2013-02-20 08:27:00,36.3,14.3,28.67,NNW,329,3.6,3.6,40,0.00,,,0.00,VWS V14.00,2013-02-20 13:27:00,
2013-02-20 08:28:00,36.3,14.3,28.67,NNW,329,3.6,3.6,40,0.00,,,0.00,VWS V14.00,2013-02-20 13:28:00,
2013-02-20 08:29:00,36.3,14.3,28.67,WNW,300,2.7,3.6,40,0.00,,,0.00,VWS V14.00,2013-02-20 13:29:00,
2013-02-20 08:30:00,36.3,14.3,28.67,WSW,238,6.3,6.3,40,0.00,,,0.00,VWS V14.00,2013-02-20 13:30:00,
2013-02-20 08:31:00,36.3,14.3,28.67,WSW,253,4.0,6.3,40,0.00,,,0.00,VWS V14.00,2013-02-20 13:31:00,
2013-02-20 08:32:00,36.3,14.3,28.67,West,272,2.7,4.0,40,0.00,,,0.00,VWS V14.00,2013-02-20 13:32:00,
2013-02-20 08:33:00,36.5,14.5,28.67,West,272,2.7,2.7,40,0.00,,,0.00,VWS V14.00,2013-02-20 13:33:00,
2013-02-20 08:34:00,36.5,14.5,28.67,West,279,3.6,3.6,40,0.00,,,0.00,VWS V14.00,2013-02-20 13:34:00,
2013-02-20 08:35:00,36.5,14.5,28.67,SW,223,3.1,5.8,40,0.00,,,0.00,VWS V14.00,2013-02-20 13:35:00,
2013-02-20 08:36:00,36.7,14.6,28.67,West,275,3.1,5.8,40,0.00,,,0.00,VWS V14.00,2013-02-20 13:36:00,
2013-02-20 08:37:00,36.7,14.6,28.67,West,275,3.1,3.1,40,0.00,,,0.00,VWS V14.00,2013-02-20 13:37:00,
2013-02-20 08:38:00,36.7,14.6,28.67,WSW,245,5.8,5.8,40,0.00,,,0.00,VWS V14.00,2013-02-20 13:38:00,
2013-02-20 08:39:00,36.9,14.8,28.67,WNW,297,2.7,5.8,40,0.00,,,0.00,VWS V14.00,2013-02-20 13:39:00,
2013-02-20 08:40:00,36.9,14.8,28.67,WNW,300,4.0,5.8,40,0.00,,,0.00,VWS V14.00,2013-02-20 13:40:00,
2013-02-20 08:41:00,36.9,14.8,28.67,WSW,254,3.1,5.8,40,0.00,,,0.00,VWS V14.00,2013-02-20 13:41:00,
2013-02-20 08:42:00,36.9,14.8,28.67,WSW,254,3.1,3.1,40,0.00,,,0.00,VWS V14.00,2013-02-20 13:42:00,
2013-02-20 08:43:00,36.9,14.8,28.67,West,276,2.7,3.6,40,0.00,,,0.00,VWS V14.00,2013-02-20 13:43:00,
2013-02-20 08:44:00,37.0,15.0,28.67,West,266,2.7,2.7,40,0.00,,,0.00,VWS V14.00,2013-02-20 13:44:00,
2013-02-20 08:45:00,37.0,15.0,28.67,WSW,243,7.6,7.6,40,0.00,,,0.00,VWS V14.00,2013-02-20 13:45:00,
2013-02-20 08:46:00,37.0,15.0,28.67,West,278,3.1,7.6,40,0.00,,,0.00,VWS V14.00,2013-02-20 13:46:00,
2013-02-20 08:47:00,37.0,15.0,28.67,WNW,286,4.0,4.0,40,0.00,,,0.00,VWS V14.00,2013-02-20 13:47:00,
2013-02-20 08:48:00,37.0,15.0,28.67,WNW,287,3.1,4.5,40,0.00,,,0.00,VWS V14.00,2013-02-20 13:48:00,
2013-02-20 08:49:00,37.2,15.1,28.67,NW,315,2.7,3.1,40,0.00,,,0.00,VWS V14.00,2013-02-20 13:49:00,
2013-02-20 08:50:00,37.4,14.7,28.67,West,276,2.7,2.7,39,0.00,,,0.00,VWS V14.00,2013-02-20 13:50:00,
2013-02-20 08:51:00,37.4,14.7,28.67,WSW,248,3.6,3.6,39,0.00,,,0.00,VWS V14.00,2013-02-20 13:51:00,
2013-02-20 08:52:00,37.4,14.7,28.67,WSW,248,3.6,3.6,39,0.00,,,0.00,VWS V14.00,2013-02-20 13:52:00,
2013-02-20 08:53:00,37.6,14.9,28.67,SSW,205,4.9,6.3,39,0.00,,,0.00,VWS V14.00,2013-02-20 13:53:00,
2013-02-20 08:54:00,37.6,14.9,28.67,WSW,240,0.0,4.9,39,0.00,,,0.00,VWS V14.00,2013-02-20 13:54:00,
2013-02-20 08:55:00,37.6,15.5,28.67,WSW,242,5.4,5.4,40,0.00,,,0.00,VWS V14.00,2013-02-20 13:55:00,
2013-02-20 08:56:00,37.6,15.5,28.67,WSW,238,5.4,5.4,40,0.00,,,0.00,VWS V14.00,2013-02-20 13:56:00,
2013-02-20 08:57:00,37.8,15.6,28.67,West,272,4.0,6.3,40,0.00,,,0.00,VWS V14.00,2013-02-20 13:57:00,
2013-02-20 08:58:00,37.8,15.0,28.67,West,266,2.7,4.0,39,0.00,,,0.00,VWS V14.00,2013-02-20 13:58:00,
2013-02-20 08:59:00,37.8,15.0,28.67,West,266,2.7,2.7,39,0.00,,,0.00,VWS V14.00,2013-02-20 13:59:00,
2013-02-20 09:00:00,37.9,15.2,28.67,SW,220,4.0,4.0,39,0.00,,,0.00,VWS V14.00,2013-02-20 14:00:00,
2013-02-20 09:01:00,37.9,15.2,28.67,NNW,330,2.2,4.0,39,0.00,,,0.00,VWS V14.00,2013-02-20 14:01:00,
2013-02-20 09:02:00,37.9,15.2,28.67,NNW,330,2.2,2.2,39,0.00,,,0.00,VWS V14.00,2013-02-20 14:02:00,
2013-02-20 09:03:00,37.9,15.2,28.67,NNW,330,2.2,2.2,39,0.00,,,0.00,VWS V14.00,2013-02-20 14:03:00,
2013-02-20 09:04:00,37.9,15.2,28.67,SW,223,4.0,8.3,39,0.00,,,0.00,VWS V14.00,2013-02-20 14:04:00,
2013-02-20 09:05:00,38.1,15.4,28.67,West,269,7.6,7.6,39,0.00,,,0.00,VWS V14.00,2013-02-20 14:05:00,
2013-02-20 09:06:00,38.1,15.4,28.67,West,269,7.6,7.6,39,0.00,,,0.00,VWS V14.00,2013-02-20 14:06:00,
2013-02-20 09:07:00,38.1,15.4,28.67,WSW,247,5.4,7.6,39,0.00,,,0.00,VWS V14.00,2013-02-20 14:07:00,
2013-02-20 09:08:00,38.3,15.5,28.67,WSW,237,8.1,8.1,39,0.00,,,0.00,VWS V14.00,2013-02-20 14:08:00,
2013-02-20 09:09:00,38.3,15.5,28.67,West,261,4.9,8.1,39,0.00,,,0.00,VWS V14.00,2013-02-20 14:09:00,
2013-02-20 09:10:00,38.5,15.7,28.67,WSW,254,5.8,5.8,39,0.00,,,0.00,VWS V14.00,2013-02-20 14:10:00,
2013-02-20 09:11:00,38.5,15.7,28.67,WNW,291,3.6,6.3,39,0.00,,,0.00,VWS V14.00,2013-02-20 14:11:00,
2013-02-20 09:12:00,38.5,15.7,28.67,West,266,4.9,5.8,39,0.00,,,0.00,VWS V14.00,2013-02-20 14:12:00,
2013-02-20 09:13:00,38.5,15.7,28.67,WSW,254,6.7,6.7,39,0.00,,,0.00,VWS V14.00,2013-02-20 14:13:00,
2013-02-20 09:14:00,38.5,15.7,28.67,WNW,288,4.9,6.7,39,0.00,,,0.00,VWS V14.00,2013-02-20 14:14:00,
2013-02-20 09:15:00,38.5,15.7,28.67,WNW,285,4.0,4.0,39,0.00,,,0.00,VWS V14.00,2013-02-20 14:15:00,
2013-02-20 09:16:00,38.5,15.7,28.67,West,278,4.9,4.9,39,0.00,,,0.00,VWS V14.00,2013-02-20 14:16:00,
2013-02-20 09:17:00,38.7,15.9,28.67,NW,308,5.4,5.4,39,0.00,,,0.00,VWS V14.00,2013-02-20 14:17:00,
2013-02-20 09:18:00,38.7,15.9,28.67,West,271,5.4,5.4,39,0.00,,,0.00,VWS V14.00,2013-02-20 14:18:00,
2013-02-20 09:19:00,38.7,15.9,28.67,WNW,296,5.4,5.4,39,0.00,,,0.00,VWS V14.00,2013-02-20 14:19:00,
2013-02-20 09:20:00,38.7,15.9,28.67,NNW,333,5.8,5.8,39,0.00,,,0.00,VWS V14.00,2013-02-20 14:20:00,
2013-02-20 09:21:00,38.7,15.9,28.67,WSW,249,3.6,5.8,39,0.00,,,0.00,VWS V14.00,2013-02-20 14:21:00,
2013-02-20 09:22:00,38.7,15.9,28.67,WSW,246,4.0,4.0,39,0.00,,,0.00,VWS V14.00,2013-02-20 14:22:00,
2013-02-20 09:23:00,38.8,16.0,28.67,WSW,244,4.9,4.9,39,0.00,,,0.00,VWS V14.00,2013-02-20 14:23:00,
2013-02-20 09:24:00,38.8,16.0,28.67,West,262,3.6,4.9,39,0.00,,,0.00,VWS V14.00,2013-02-20 14:24:00,
2013-02-20 09:25:00,38.8,16.0,28.67,WSW,249,5.8,5.8,39,0.00,,,0.00,VWS V14.00,2013-02-20 14:25:00,
2013-02-20 09:26:00,38.8,16.0,28.67,WSW,246,4.9,5.8,39,0.00,,,0.00,VWS V14.00,2013-02-20 14:26:00,
2013-02-20 09:27:00,38.8,16.0,28.67,West,272,5.8,5.8,39,0.00,,,0.00,VWS V14.00,2013-02-20 14:27:00,
2013-02-20 09:28:00,39.0,16.2,28.67,WNW,296,3.1,5.8,39,0.00,,,0.00,VWS V14.00,2013-02-20 14:28:00,
2013-02-20 09:29:00,39.0,16.2,28.67,SSW,205,5.4,5.4,39,0.00,,,0.00,VWS V14.00,2013-02-20 14:29:00,
2013-02-20 09:30:00,39.2,16.3,28.67,South,180,6.3,6.3,39,0.00,,,0.00,VWS V14.00,2013-02-20 14:30:00,
2013-02-20 09:31:00,39.2,16.3,28.67,SW,229,4.9,6.3,39,0.00,,,0.00,VWS V14.00,2013-02-20 14:31:00,
2013-02-20 09:32:00,39.2,16.3,28.67,SW,229,4.9,4.9,39,0.00,,,0.00,VWS V14.00,2013-02-20 14:32:00,
2013-02-20 09:33:00,39.2,16.3,28.67,SW,221,5.4,5.4,39,0.00,,,0.00,VWS V14.00,2013-02-20 14:33:00,
2013-02-20 09:34:00,39.2,16.3,28.67,SW,222,2.7,5.4,39,0.00,,,0.00,VWS V14.00,2013-02-20 14:34:00,
2013-02-20 09:35:00,39.2,16.3,28.67,West,270,4.0,4.0,39,0.00,,,0.00,VWS V14.00,2013-02-20 14:35:00,
2013-02-20 09:36:00,39.4,16.5,28.67,West,261,4.9,6.3,39,0.00,,,0.00,VWS V14.00,2013-02-20 14:36:00,
2013-02-20 09:37:00,39.4,16.5,28.67,SW,227,3.1,4.9,39,0.00,,,0.00,VWS V14.00,2013-02-20 14:37:00,
2013-02-20 09:38:00,39.4,16.5,28.67,WSW,244,5.4,5.4,39,0.00,,,0.00,VWS V14.00,2013-02-20 14:38:00,
2013-02-20 09:39:00,39.4,16.5,28.67,SSW,212,4.0,5.4,39,0.00,,,0.00,VWS V14.00,2013-02-20 14:39:00,
2013-02-20 09:40:00,39.4,16.5,28.67,SW,220,5.4,5.4,39,0.00,,,0.00,VWS V14.00,2013-02-20 14:40:00,
2013-02-20 09:41:00,39.4,16.5,28.67,SW,218,4.9,6.3,39,0.00,,,0.00,VWS V14.00,2013-02-20 14:41:00,
2013-02-20 09:42:00,39.7,16.8,28.67,SW,223,5.8,5.8,39,0.00,,,0.00,VWS V14.00,2013-02-20 14:42:00,
2013-02-20 09:43:00,39.7,16.8,28.67,SW,230,5.8,5.8,39,0.00,,,0.00,VWS V14.00,2013-02-20 14:43:00,
2013-02-20 09:44:00,39.7,16.8,28.67,West,276,4.5,5.8,39,0.00,,,0.00,VWS V14.00,2013-02-20 14:44:00,
2013-02-20 09:45:00,39.7,16.8,28.67,WSW,253,3.1,4.5,39,0.00,,,0.00,VWS V14.00,2013-02-20 14:45:00,
2013-02-20 09:46:00,39.7,16.8,28.67,West,276,4.9,4.9,39,0.00,,,0.00,VWS V14.00,2013-02-20 14:46:00,
2013-02-20 09:47:00,39.7,16.8,28.67,SW,226,3.6,4.9,39,0.00,,,0.00,VWS V14.00,2013-02-20 14:47:00,
2013-02-20 09:48:00,39.9,17.0,28.67,West,273,3.6,3.6,39,0.00,,,0.00,VWS V14.00,2013-02-20 14:48:00,
2013-02-20 09:49:00,39.9,17.0,28.67,WSW,242,8.1,8.1,39,0.00,,,0.00,VWS V14.00,2013-02-20 14:49:00,
2013-02-20 09:50:00,39.9,17.0,28.67,WSW,242,8.1,8.1,39,0.00,,,0.00,VWS V14.00,2013-02-20 14:50:00,
2013-02-20 09:51:00,39.9,17.0,28.67,North,357,5.4,8.7,39,0.00,,,0.00,VWS V14.00,2013-02-20 14:51:00,
2013-02-20 09:52:00,39.9,17.0,28.67,WSW,247,2.7,5.4,39,0.00,,,0.00,VWS V14.00,2013-02-20 14:52:00,
2013-02-20 09:53:00,39.9,17.0,28.67,West,265,8.1,8.1,39,0.00,,,0.00,VWS V14.00,2013-02-20 14:53:00,
2013-02-20 09:54:00,39.9,17.0,28.67,West,267,5.8,9.2,39,0.00,,,0.00,VWS V14.00,2013-02-20 14:54:00,
2013-02-20 09:55:00,39.9,17.0,28.67,WSW,238,2.7,5.8,39,0.00,,,0.00,VWS V14.00,2013-02-20 14:55:00,
2013-02-20 09:56:00,40.1,17.1,28.67,NNW,341,4.0,5.4,39,0.00,,,0.00,VWS V14.00,2013-02-20 14:56:00,
2013-02-20 09:57:00,40.1,17.1,28.67,WNW,286,2.7,4.9,39,0.00,,,0.00,VWS V14.00,2013-02-20 14:57:00,
2013-02-20 09:58:00,40.1,17.1,28.67,WNW,286,2.7,2.7,39,0.00,,,0.00,VWS V14.00,2013-02-20 14:58:00,
2013-02-20 09:59:00,40.3,17.3,28.67,WNW,295,5.8,5.8,39,0.00,,,0.00,VWS V14.00,2013-02-20 14:59:00,
2013-02-20 10:00:00,40.3,17.3,28.67,WSW,237,8.3,8.3,39,0.00,,,0.00,VWS V14.00,2013-02-20 15:00:00,
2013-02-20 10:01:00,40.5,17.5,28.67,SSW,198,3.6,8.3,39,0.00,,,0.00,VWS V14.00,2013-02-20 15:01:00,
2013-02-20 10:02:00,40.5,17.5,28.67,WSW,255,9.2,9.2,39,0.00,,,0.00,VWS V14.00,2013-02-20 15:02:00,
2013-02-20 10:03:00,40.5,17.5,28.67,West,278,5.4,9.2,39,0.00,,,0.00,VWS V14.00,2013-02-20 15:03:00,
2013-02-20 10:04:00,40.5,17.5,28.67,WNW,298,4.9,5.4,39,0.00,,,0.00,VWS V14.00,2013-02-20 15:04:00,
2013-02-20 10:05:00,40.5,17.5,28.67,WNW,298,4.0,5.4,39,0.00,,,0.00,VWS V14.00,2013-02-20 15:05:00,
2013-02-20 10:10:00,40.5,17.5,28.67,West,261,5.4,5.4,39,0.00,,,0.00,VWS V14.00,2013-02-20 15:10:00,
2013-02-20 10:15:00,40.6,17.6,28.67,WSW,239,11.0,11.0,39,0.00,,,0.00,VWS V14.00,2013-02-20 15:15:00,
2013-02-20 10:20:00,41.0,18.0,28.67,WNW,294,4.0,7.6,39,0.00,,,0.00,VWS V14.00,2013-02-20 15:20:00,
2013-02-20 10:25:00,41.2,18.1,28.67,SSW,197,5.4,8.1,39,0.00,,,0.00,VWS V14.00,2013-02-20 15:25:00,
2013-02-20 10:30:00,41.7,18.6,28.67,West,268,3.1,7.6,39,0.00,,,0.00,VWS V14.00,2013-02-20 15:30:00,
2013-02-20 10:35:00,42.1,18.9,28.67,West,265,3.1,10.1,39,0.00,,,0.00,VWS V14.00,2013-02-20 15:35:00,
2013-02-20 10:40:00,42.3,19.1,28.67,West,262,5.8,9.6,39,0.00,,,0.00,VWS V14.00,2013-02-20 15:40:00,
2013-02-20 10:45:00,42.4,19.2,28.67,WSW,246,8.7,8.7,39,0.00,,,0.00,VWS V14.00,2013-02-20 15:45:00,
2013-02-20 10:50:00,42.8,19.0,28.67,WNW,288,6.7,11.0,38,0.00,,,0.00,VWS V14.00,2013-02-20 15:50:00,
2013-02-20 10:55:00,42.6,19.4,28.67,WSW,252,7.6,8.1,39,0.00,,,0.00,VWS V14.00,2013-02-20 15:55:00,
2013-02-20 11:00:00,43.0,19.1,28.67,WNW,284,3.1,3.6,38,0.00,,,0.00,VWS V14.00,2013-02-20 16:00:00,
2013-02-20 11:05:00,43.3,19.5,28.67,WSW,249,8.3,8.3,38,0.00,,,0.00,VWS V14.00,2013-02-20 16:05:00,
2013-02-20 11:10:00,43.5,19.6,28.67,WSW,250,4.0,6.3,38,0.00,,,0.00,VWS V14.00,2013-02-20 16:10:00,
2013-02-20 11:15:00,43.5,19.6,28.67,North,3,4.0,6.3,38,0.00,,,0.00,VWS V14.00,2013-02-20 16:15:00,
2013-02-20 11:20:00,43.9,19.9,28.67,SSW,198,3.1,5.8,38,0.00,,,0.00,VWS V14.00,2013-02-20 16:20:00,
2013-02-20 11:25:00,44.2,20.3,28.67,WNW,300,4.9,4.9,38,0.00,,,0.00,VWS V14.00,2013-02-20 16:25:00,
2013-02-20 11:30:00,44.6,20.6,28.67,West,262,4.0,4.0,38,0.00,,,0.00,VWS V14.00,2013-02-20 16:30:00,
2013-02-20 11:35:00,44.6,20.6,28.67,SW,233,4.0,5.8,38,0.00,,,0.00,VWS V14.00,2013-02-20 16:35:00,
2013-02-20 11:40:00,44.8,20.7,28.67,West,270,8.3,10.5,38,0.00,,,0.00,VWS V14.00,2013-02-20 16:40:00,
2013-02-20 11:45:00,45.1,21.1,28.67,SW,215,5.4,8.7,38,0.00,,,0.00,VWS V14.00,2013-02-20 16:45:00,
2013-02-20 11:50:00,45.0,20.9,28.67,SSW,205,5.8,10.1,38,0.00,,,0.00,VWS V14.00,2013-02-20 16:50:00,
2013-02-20 11:55:00,44.8,20.7,28.64,WSW,238,4.0,7.6,38,0.00,,,0.00,VWS V14.00,2013-02-20 16:55:00,
2013-02-20 12:00:00,45.1,21.1,28.64,SW,236,7.6,7.6,38,0.00,,,0.00,VWS V14.00,2013-02-20 17:00:00,
2013-02-20 12:05:00,45.1,21.1,28.64,WSW,237,3.6,4.9,38,0.00,,,0.00,VWS V14.00,2013-02-20 17:05:00,
2013-02-20 12:10:00,45.5,21.4,28.64,SW,229,4.0,6.3,38,0.00,,,0.00,VWS V14.00,2013-02-20 17:10:00,
2013-02-20 12:15:00,45.9,21.7,28.64,SSW,211,5.4,7.6,38,0.00,,,0.00,VWS V14.00,2013-02-20 17:15:00,
2013-02-20 12:20:00,46.2,22.0,28.64,NNW,338,3.1,5.4,38,0.00,,,0.00,VWS V14.00,2013-02-20 17:20:00,
2013-02-20 12:25:00,46.2,22.0,28.64,WSW,249,8.1,10.1,38,0.00,,,0.00,VWS V14.00,2013-02-20 17:25:00,
2013-02-20 12:30:00,46.0,21.9,28.64,SSW,203,8.3,11.0,38,0.00,,,0.00,VWS V14.00,2013-02-20 17:30:00,
2013-02-20 12:35:00,46.4,21.6,28.64,SW,230,7.6,7.6,37,0.00,,,0.00,VWS V14.00,2013-02-20 17:35:00,
2013-02-20 12:40:00,46.6,21.7,28.64,WSW,250,6.3,6.3,37,0.00,,,0.00,VWS V14.00,2013-02-20 17:40:00,
2013-02-20 12:45:00,46.6,21.7,28.64,West,262,5.4,6.3,37,0.00,,,0.00,VWS V14.00,2013-02-20 17:45:00,
2013-02-20 12:50:00,46.6,21.7,28.64,SSW,212,7.6,8.3,37,0.00,,,0.00,VWS V14.00,2013-02-20 17:50:00,
2013-02-20 12:55:00,46.9,22.0,28.64,WSW,248,2.7,7.2,37,0.00,,,0.00,VWS V14.00,2013-02-20 17:55:00,
2013-02-20 13:00:00,47.1,22.2,28.64,WSW,242,5.8,14.5,37,0.00,,,0.00,VWS V14.00,2013-02-20 18:00:00,
2013-02-20 13:05:00,47.3,22.4,28.64,NNW,346,3.1,7.6,37,0.00,,,0.00,VWS V14.00,2013-02-20 18:05:00,
2013-02-20 13:10:00,47.7,22.7,28.64,SSW,202,2.7,5.8,37,0.00,,,0.00,VWS V14.00,2013-02-20 18:10:00,
2013-02-20 13:15:00,47.7,22.7,28.64,SW,216,4.0,8.3,37,0.00,,,0.00,VWS V14.00,2013-02-20 18:15:00,
2013-02-20 13:20:00,47.8,22.9,28.64,SSW,206,8.1,10.1,37,0.00,,,0.00,VWS V14.00,2013-02-20 18:20:00,
2013-02-20 13:25:00,48.2,23.2,28.61,SW,236,6.3,7.6,37,0.00,,,0.00,VWS V14.00,2013-02-20 18:25:00,
2013-02-20 13:30:00,48.2,23.2,28.61,West,273,4.9,4.9,37,0.00,,,0.00,VWS V14.00,2013-02-20 18:30:00,
2013-02-20 13:35:00,48.4,23.3,28.61,West,260,5.8,6.3,37,0.00,,,0.00,VWS V14.00,2013-02-20 18:35:00,
2013-02-20 13:40:00,48.4,23.3,28.61,WSW,251,5.8,5.8,37,0.00,,,0.00,VWS V14.00,2013-02-20 18:40:00,
2013-02-20 13:45:00,48.0,23.0,28.61,West,263,3.6,8.3,37,0.00,,,0.00,VWS V14.00,2013-02-20 18:45:00,
2013-02-20 13:50:00,48.4,23.3,28.61,WSW,254,11.0,11.0,37,0.00,,,0.00,VWS V14.00,2013-02-20 18:50:00,
2013-02-20 13:54:00,48.7,23.6,28.61,WSW,249,10.5,10.5,37,0.00,,,0.00,VWS V14.00,2013-02-20 18:54:00,
2013-02-20 13:59:00,48.6,23.5,28.61,NNW,345,5.8,5.8,37,0.00,,,0.00,VWS V14.00,2013-02-20 18:59:00,
2013-02-20 14:04:00,48.4,23.3,28.61,West,276,6.3,6.3,37,0.00,,,0.00,VWS V14.00,2013-02-20 19:04:00,
2013-02-20 14:09:00,48.2,23.2,28.61,WSW,258,5.4,6.3,37,0.00,,,0.00,VWS V14.00,2013-02-20 19:09:00,
2013-02-20 14:14:00,48.0,23.0,28.61,West,270,3.1,3.1,37,0.00,,,0.00,VWS V14.00,2013-02-20 19:14:00,
2013-02-20 14:19:00,48.7,23.6,28.61,SSW,207,5.4,6.3,37,0.00,,,0.00,VWS V14.00,2013-02-20 19:19:00,
2013-02-20 14:24:00,48.9,23.8,28.61,West,277,3.6,3.6,37,0.00,,,0.00,VWS V14.00,2013-02-20 19:24:00,
2013-02-20 14:29:00,49.3,24.1,28.61,WSW,240,5.4,8.1,37,0.00,,,0.00,VWS V14.00,2013-02-20 19:29:00,
2013-02-20 14:34:00,49.6,24.5,28.61,SSW,202,6.3,6.3,37,0.00,,,0.00,VWS V14.00,2013-02-20 19:34:00,
2013-02-20 14:39:00,50.0,24.8,28.59,WSW,248,8.3,8.3,37,0.00,,,0.00,VWS V14.00,2013-02-20 19:39:00,
2013-02-20 14:44:00,50.2,24.9,28.59,SW,232,8.7,8.7,37,0.00,,,0.00,VWS V14.00,2013-02-20 19:44:00,
2013-02-20 14:49:00,50.2,24.9,28.59,WSW,258,10.1,10.1,37,0.00,,,0.00,VWS V14.00,2013-02-20 19:49:00,
2013-02-20 14:54:00,50.0,24.8,28.59,SW,217,7.6,7.6,37,0.00,,,0.00,VWS V14.00,2013-02-20 19:54:00,
2013-02-20 14:59:00,50.0,24.8,28.59,NNW,330,3.1,3.6,37,0.00,,,0.00,VWS V14.00,2013-02-20 19:59:00,
2013-02-20 15:04:00,50.2,24.9,28.59,WSW,254,3.6,3.6,37,0.00,,,0.00,VWS V14.00,2013-02-20 20:04:00,
2013-02-20 15:09:00,50.0,24.8,28.59,SW,235,5.8,5.8,37,0.00,,,0.00,VWS V14.00,2013-02-20 20:09:00,
2013-02-20 15:14:00,50.2,24.9,28.59,WNW,286,6.3,6.3,37,0.00,,,0.00,VWS V14.00,2013-02-20 20:14:00,
2013-02-20 15:19:00,50.4,25.1,28.59,SSW,212,6.3,6.3,37,0.00,,,0.00,VWS V14.00,2013-02-20 20:19:00,
2013-02-20 15:24:00,50.2,24.9,28.59,West,266,3.1,5.4,37,0.00,,,0.00,VWS V14.00,2013-02-20 20:24:00,
2013-02-20 15:29:00,50.0,24.8,28.59,WNW,284,4.9,4.9,37,0.00,,,0.00,VWS V14.00,2013-02-20 20:29:00,
2013-02-20 15:34:00,50.0,24.8,28.59,West,268,4.0,4.0,37,0.00,,,0.00,VWS V14.00,2013-02-20 20:34:00,
2013-02-20 15:39:00,50.0,24.8,28.59,WSW,237,3.1,4.0,37,0.00,,,0.00,VWS V14.00,2013-02-20 20:39:00,
2013-02-20 15:44:00,50.2,24.9,28.59,WNW,292,4.9,4.9,37,0.00,,,0.00,VWS V14.00,2013-02-20 20:44:00,
2013-02-20 15:49:00,50.4,25.1,28.59,NW,319,4.0,5.8,37,0.00,,,0.00,VWS V14.00,2013-02-20 20:49:00,
2013-02-20 15:54:00,50.5,25.2,28.59,NW,315,3.6,3.6,37,0.00,,,0.00,VWS V14.00,2013-02-20 20:54:00,
2013-02-20 15:59:00,50.7,25.4,28.59,SW,234,6.3,6.3,37,0.00,,,0.00,VWS V14.00,2013-02-20 20:59:00,
2013-02-20 16:04:00,50.7,25.4,28.59,WSW,258,5.4,7.6,37,0.00,,,0.00,VWS V14.00,2013-02-20 21:04:00,
2013-02-20 16:09:00,50.5,25.2,28.59,SW,220,5.8,5.8,37,0.00,,,0.00,VWS V14.00,2013-02-20 21:09:00,
2013-02-20 16:14:00,50.7,25.4,28.59,NW,310,3.6,5.8,37,0.00,,,0.00,VWS V14.00,2013-02-20 21:14:00,
2013-02-20 16:19:00,50.7,25.4,28.59,WSW,238,5.4,5.4,37,0.00,,,0.00,VWS V14.00,2013-02-20 21:19:00,
2013-02-20 16:24:00,50.7,25.4,28.59,West,278,4.9,4.9,37,0.00,,,0.00,VWS V14.00,2013-02-20 21:24:00,
2013-02-20 16:29:00,50.7,25.4,28.59,NW,308,5.4,5.4,37,0.00,,,0.00,VWS V14.00,2013-02-20 21:29:00,
2013-02-20 16:34:00,50.7,25.4,28.59,SW,227,7.6,7.6,37,0.00,,,0.00,VWS V14.00,2013-02-20 21:34:00,
2013-02-20 16:39:00,50.7,25.4,28.61,SW,226,4.0,7.6,37,0.00,,,0.00,VWS V14.00,2013-02-20 21:39:00,
2013-02-20 16:44:00,50.5,25.2,28.61,SW,221,3.6,3.6,37,0.00,,,0.00,VWS V14.00,2013-02-20 21:44:00,
2013-02-20 16:49:00,50.2,24.9,28.61,SW,234,7.6,7.6,37,0.00,,,0.00,VWS V14.00,2013-02-20 21:49:00,
2013-02-20 16:54:00,50.0,24.8,28.59,SW,225,4.5,5.4,37,0.00,,,0.00,VWS V14.00,2013-02-20 21:54:00,
2013-02-20 16:59:00,49.8,24.6,28.59,SSW,213,6.3,8.1,37,0.00,,,0.00,VWS V14.00,2013-02-20 21:59:00,
2013-02-20 17:04:00,49.6,24.5,28.59,West,262,6.3,6.3,37,0.00,,,0.00,VWS V14.00,2013-02-20 22:04:00,
2013-02-20 17:09:00,49.5,24.3,28.61,SW,225,2.2,4.9,37,0.00,,,0.00,VWS V14.00,2013-02-20 22:09:00,
2013-02-20 17:14:00,49.3,24.1,28.61,West,265,4.0,5.4,37,0.00,,,0.00,VWS V14.00,2013-02-20 22:14:00,
2013-02-20 17:19:00,49.3,24.1,28.61,SW,219,2.7,2.7,37,0.00,,,0.00,VWS V14.00,2013-02-20 22:19:00,
2013-02-20 17:24:00,49.1,24.0,28.61,SW,225,2.7,2.7,37,0.00,,,0.00,VWS V14.00,2013-02-20 22:24:00,
2013-02-20 17:29:00,48.9,23.8,28.61,WSW,244,2.7,3.6,37,0.00,,,0.00,VWS V14.00,2013-02-20 22:29:00,
2013-02-20 17:34:00,48.7,23.6,28.61,SW,215,0.0,0.0,37,0.00,,,0.00,VWS V14.00,2013-02-20 22:34:00,
2013-02-20 17:39:00,48.4,23.3,28.61,SW,225,0.0,0.0,37,0.00,,,0.00,VWS V14.00,2013-02-20 22:39:00,
2013-02-20 17:44:00,48.0,23.0,28.61,SW,225,0.0,0.0,37,0.00,,,0.00,VWS V14.00,2013-02-20 22:44:00,
2013-02-20 17:49:00,47.7,22.7,28.61,SW,226,0.0,0.0,37,0.00,,,0.00,VWS V14.00,2013-02-20 22:49:00,
2013-02-20 17:54:00,47.3,22.4,28.61,SW,226,0.0,0.0,37,0.00,,,0.00,VWS V14.00,2013-02-20 22:54:00,
2013-02-20 17:59:00,46.9,22.0,28.61,SW,226,0.0,0.0,37,0.00,,,0.00,VWS V14.00,2013-02-20 22:59:00,
2013-02-20 18:04:00,46.4,21.6,28.61,SW,226,0.0,0.0,37,0.00,,,0.00,VWS V14.00,2013-02-20 23:04:00,
2013-02-20 18:09:00,45.3,21.2,28.64,SW,226,0.0,0.0,38,0.00,,,0.00,VWS V14.00,2013-02-20 23:09:00,
2013-02-20 18:14:00,44.8,20.7,28.64,SW,226,0.0,0.0,38,0.00,,,0.00,VWS V14.00,2013-02-20 23:14:00,
2013-02-20 18:19:00,43.3,19.5,28.64,SW,226,0.0,0.0,38,0.00,,,0.00,VWS V14.00,2013-02-20 23:19:00,
2013-02-20 18:24:00,42.4,19.2,28.64,SW,226,0.0,0.0,39,0.00,,,0.00,VWS V14.00,2013-02-20 23:24:00,
2013-02-20 18:29:00,41.7,18.6,28.64,SW,226,0.0,0.0,39,0.00,,,0.00,VWS V14.00,2013-02-20 23:29:00,
2013-02-20 18:34:00,41.5,18.4,28.64,SW,226,0.0,0.0,39,0.00,,,0.00,VWS V14.00,2013-02-20 23:34:00,
2013-02-20 18:39:00,41.0,18.0,28.64,SW,226,0.0,0.0,39,0.00,,,0.00,VWS V14.00,2013-02-20 23:39:00,
2013-02-20 18:44:00,40.8,17.8,28.64,SW,226,0.0,0.0,39,0.00,,,0.00,VWS V14.00,2013-02-20 23:44:00,
2013-02-20 18:49:00,40.5,17.5,28.64,SW,226,0.0,0.0,39,0.00,,,0.00,VWS V14.00,2013-02-20 23:49:00,
2013-02-20 18:54:00,39.9,17.0,28.64,SW,226,0.0,0.0,39,0.00,,,0.00,VWS V14.00,2013-02-20 23:54:00,
2013-02-20 18:59:00,39.4,16.5,28.64,SW,226,0.0,0.0,39,0.00,,,0.00,VWS V14.00,2013-02-20 23:59:00,
2013-02-20 19:04:00,39.0,16.2,28.64,SW,226,0.0,0.0,39,0.00,,,0.00,VWS V14.00,2013-02-21 00:04:00,
2013-02-20 19:09:00,38.8,16.0,28.64,SW,226,0.0,0.0,39,0.00,,,0.00,VWS V14.00,2013-02-21 00:09:00,
2013-02-20 19:14:00,38.1,15.4,28.64,SW,226,0.0,0.0,39,0.00,,,0.00,VWS V14.00,2013-02-21 00:14:00,
2013-02-20 19:19:00,37.8,15.0,28.64,SW,226,0.0,0.0,39,0.00,,,0.00,VWS V14.00,2013-02-21 00:19:00,
2013-02-20 19:24:00,37.4,14.7,28.64,SW,226,0.0,0.0,39,0.00,,,0.00,VWS V14.00,2013-02-21 00:24:00,
2013-02-20 19:29:00,37.0,15.0,28.64,SW,226,0.0,0.0,40,0.00,,,0.00,VWS V14.00,2013-02-21 00:29:00,
2013-02-20 19:34:00,36.7,14.6,28.64,SW,226,0.0,0.0,40,0.00,,,0.00,VWS V14.00,2013-02-21 00:34:00,
2013-02-20 19:39:00,36.3,14.3,28.67,SW,226,0.0,0.0,40,0.00,,,0.00,VWS V14.00,2013-02-21 00:39:00,
2013-02-20 19:44:00,35.8,13.8,28.67,SW,226,0.0,0.0,40,0.00,,,0.00,VWS V14.00,2013-02-21 00:44:00,
2013-02-20 19:49:00,35.4,13.5,28.67,SW,226,0.0,0.0,40,0.00,,,0.00,VWS V14.00,2013-02-21 00:49:00,
2013-02-20 19:54:00,35.1,13.2,28.67,SW,226,0.0,0.0,40,0.00,,,0.00,VWS V14.00,2013-02-21 00:54:00,
2013-02-20 19:59:00,34.7,12.9,28.67,NNE,21,0.0,0.0,40,0.00,,,0.00,VWS V14.00,2013-02-21 00:59:00,
2013-02-20 20:04:00,34.5,12.7,28.67,NNE,21,0.0,0.0,40,0.00,,,0.00,VWS V14.00,2013-02-21 01:04:00,
2013-02-20 20:09:00,34.5,12.7,28.67,NNE,21,0.0,0.0,40,0.00,,,0.00,VWS V14.00,2013-02-21 01:09:00,
2013-02-20 20:14:00,34.3,12.5,28.67,NNE,21,0.0,0.0,40,0.00,,,0.00,VWS V14.00,2013-02-21 01:14:00,
2013-02-20 20:19:00,34.0,12.2,28.67,NNE,21,0.0,0.0,40,0.00,,,0.00,VWS V14.00,2013-02-21 01:19:00,
2013-02-20 20:24:00,33.6,12.4,28.67,NNE,21,0.0,0.0,41,0.00,,,0.00,VWS V14.00,2013-02-21 01:24:00,
2013-02-20 20:29:00,33.1,12.0,28.67,NNE,21,0.0,0.0,41,0.00,,,0.00,VWS V14.00,2013-02-21 01:29:00,
2013-02-20 20:34:00,32.7,11.6,28.67,NNE,21,0.0,0.0,41,0.00,,,0.00,VWS V14.00,2013-02-21 01:34:00,
2013-02-20 20:39:00,32.5,11.5,28.67,NNE,21,0.0,0.0,41,0.00,,,0.00,VWS V14.00,2013-02-21 01:39:00,
2013-02-20 20:44:00,32.5,11.5,28.67,NNE,21,0.0,0.0,41,0.00,,,0.00,VWS V14.00,2013-02-21 01:44:00,
2013-02-20 20:49:00,32.5,11.5,28.67,NNE,21,0.0,0.0,41,0.00,,,0.00,VWS V14.00,2013-02-21 01:49:00,
2013-02-20 20:54:00,32.5,11.5,28.67,NNE,21,0.0,0.0,41,0.00,,,0.00,VWS V14.00,2013-02-21 01:54:00,
2013-02-20 20:59:00,32.5,11.5,28.67,NNE,21,0.0,0.0,41,0.00,,,0.00,VWS V14.00,2013-02-21 01:59:00,
2013-02-20 21:04:00,32.0,11.0,28.67,NNE,21,0.0,0.0,41,0.00,,,0.00,VWS V14.00,2013-02-21 02:04:00,
2013-02-20 21:09:00,32.0,11.0,28.70,NNE,21,0.0,0.0,41,0.00,,,0.00,VWS V14.00,2013-02-21 02:09:00,
2013-02-20 21:14:00,32.2,11.1,28.70,NNE,21,0.0,0.0,41,0.00,,,0.00,VWS V14.00,2013-02-21 02:14:00,
2013-02-20 21:19:00,32.5,11.5,28.70,NNE,21,0.0,0.0,41,0.00,,,0.00,VWS V14.00,2013-02-21 02:19:00,
2013-02-20 21:24:00,32.7,11.6,28.70,NNE,21,0.0,0.0,41,0.00,,,0.00,VWS V14.00,2013-02-21 02:24:00,
2013-02-20 21:29:00,33.1,12.0,28.70,NNE,21,0.0,0.0,41,0.00,,,0.00,VWS V14.00,2013-02-21 02:29:00,
2013-02-20 21:34:00,33.8,12.1,28.70,NNE,21,0.0,0.0,40,0.00,,,0.00,VWS V14.00,2013-02-21 02:34:00,
2013-02-20 21:39:00,34.9,13.0,28.70,NNE,21,0.0,0.0,40,0.00,,,0.00,VWS V14.00,2013-02-21 02:39:00,
2013-02-20 21:44:00,35.6,13.7,28.70,NNE,21,0.0,0.0,40,0.00,,,0.00,VWS V14.00,2013-02-21 02:44:00,
2013-02-20 21:49:00,36.0,14.0,28.70,NNE,21,0.0,0.0,40,0.00,,,0.00,VWS V14.00,2013-02-21 02:49:00,
2013-02-20 21:54:00,36.1,14.2,28.70,ENE,61,0.0,0.0,40,0.00,,,0.00,VWS V14.00,2013-02-21 02:54:00,
2013-02-20 21:59:00,36.3,14.3,28.70,ENE,61,0.0,0.0,40,0.00,,,0.00,VWS V14.00,2013-02-21 02:59:00,
2013-02-20 22:04:00,36.3,14.3,28.70,ENE,61,0.0,0.0,40,0.00,,,0.00,VWS V14.00,2013-02-21 03:04:00,
2013-02-20 22:09:00,36.3,14.3,28.70,ENE,61,0.0,0.0,40,0.00,,,0.00,VWS V14.00,2013-02-21 03:09:00,
2013-02-20 22:14:00,36.3,14.3,28.70,ENE,61,0.0,0.0,40,0.00,,,0.00,VWS V14.00,2013-02-21 03:14:00,
2013-02-20 22:19:00,36.1,14.2,28.70,ENE,61,0.0,0.0,40,0.00,,,0.00,VWS V14.00,2013-02-21 03:19:00,
2013-02-20 22:24:00,35.8,13.8,28.73,ENE,61,0.0,0.0,40,0.00,,,0.00,VWS V14.00,2013-02-21 03:24:00,
2013-02-20 22:29:00,35.6,13.7,28.73,ENE,61,0.0,0.0,40,0.00,,,0.00,VWS V14.00,2013-02-21 03:29:00,
2013-02-20 22:34:00,35.4,13.5,28.73,NNW,333,0.0,0.0,40,0.00,,,0.00,VWS V14.00,2013-02-21 03:34:00,
2013-02-20 22:39:00,35.2,13.4,28.73,NNW,333,0.0,0.0,40,0.00,,,0.00,VWS V14.00,2013-02-21 03:39:00,
2013-02-20 22:44:00,35.2,13.4,28.73,NNW,334,0.0,0.0,40,0.00,,,0.00,VWS V14.00,2013-02-21 03:44:00,
2013-02-20 22:49:00,35.1,13.2,28.73,NNW,334,0.0,0.0,40,0.00,,,0.00,VWS V14.00,2013-02-21 03:49:00,
2013-02-20 22:54:00,35.1,13.2,28.73,NNW,334,0.0,0.0,40,0.00,,,0.00,VWS V14.00,2013-02-21 03:54:00,
2013-02-20 22:59:00,34.9,13.0,28.73,NNW,334,0.0,0.0,40,0.00,,,0.00,VWS V14.00,2013-02-21 03:59:00,
2013-02-20 23:04:00,34.9,13.0,28.73,NNW,334,0.0,0.0,40,0.00,,,0.00,VWS V14.00,2013-02-21 04:04:00,
2013-02-20 23:09:00,34.5,12.7,28.70,NNW,333,0.0,0.0,40,0.00,,,0.00,VWS V14.00,2013-02-21 04:09:00,
2013-02-20 23:14:00,34.5,12.7,28.70,West,269,0.0,0.0,40,0.00,,,0.00,VWS V14.00,2013-02-21 04:14:00,
2013-02-20 23:19:00,34.7,12.9,28.70,NW,321,0.0,0.0,40,0.00,,,0.00,VWS V14.00,2013-02-21 04:19:00,
2013-02-20 23:24:00,34.7,12.9,28.70,NW,321,0.0,0.0,40,0.00,,,0.00,VWS V14.00,2013-02-21 04:24:00,
2013-02-20 23:29:00,34.7,12.9,28.70,NW,321,0.0,0.0,40,0.00,,,0.00,VWS V14.00,2013-02-21 04:29:00,
2013-02-20 23:34:00,34.7,12.9,28.70,NW,321,0.0,0.0,40,0.00,,,0.00,VWS V14.00,2013-02-21 04:34:00,
2013-02-20 23:39:00,35.1,13.2,28.70,NW,321,0.0,0.0,40,0.00,,,0.00,VWS V14.00,2013-02-21 04:39:00,
2013-02-20 23:44:00,35.2,13.4,28.70,NW,326,0.0,0.0,40,0.00,,,0.00,VWS V14.00,2013-02-21 04:44:00,
2013-02-20 23:49:00,35.4,13.5,28.70,NW,326,0.0,0.0,40,0.00,,,0.00,VWS V14.00,2013-02-21 04:49:00,
2013-02-20 23:54:00,35.2,13.4,28.70,NW,326,0.0,0.0,40,0.00,,,0.00,VWS V14.00,2013-02-21 04:54:00,
2013-02-20 23:59:00,35.1,13.2,28.70,NNW,328,0.0,0.0,40,0.00,,,0.00,VWS V14.00,2013-02-21 04:59:00,